GEFSNE_prec_meanprecacc_222.txt.gz
Total_Precipitation_Accumulation
1.61 1.77 1.88 1.95 1.92 1.78 1.81 1.89 1.78 1.52 1.34 1.19 1.08 0.99 0.98 1.03 1.32 1.28 1.11 1.08 0.98 0.92 0.86 0.83 0.83 0.83 0.95 1.14 1.33 1.49 1.60 1.62 1.63 1.70 1.74 1.70 1.72 1.75
1.57 1.71 1.73 1.77 1.80 1.71 1.70 1.83 1.82 1.60 1.36 1.18 1.05 1.01 1.10 1.06 1.24 1.13 1.21 1.29 1.01 0.90 0.84 0.83 0.76 0.69 0.64 0.69 0.82 0.95 1.05 1.10 1.20 1.28 1.35 1.36 1.34 1.36
1.08 1.22 1.43 1.62 1.67 1.67 1.73 1.79 1.84 1.70 1.44 1.30 1.08 1.09 1.24 1.21 1.20 1.13 1.21 1.26 1.06 0.94 0.80 0.75 0.74 0.69 0.67 0.62 0.63 0.69 0.77 0.83 0.90 0.97 1.05 1.12 1.11 1.12
0.89 0.90 1.01 1.24 1.41 1.54 1.62 1.64 1.72 1.70 1.56 1.54 1.45 1.23 1.21 1.20 1.31 1.38 1.31 1.27 1.24 1.22 1.08 0.87 0.78 0.73 0.70 0.66 0.60 0.57 0.59 0.63 0.70 0.74 0.77 0.88 0.99 1.02
0.83 0.85 0.91 1.01 1.18 1.27 1.38 1.49 1.57 1.68 1.67 1.50 1.55 1.49 1.28 1.24 1.29 1.36 1.42 1.51 1.39 1.34 1.40 1.22 1.00 0.88 0.81 0.75 0.67 0.62 0.60 0.62 0.65 0.70 0.73 0.77 0.80 0.84
0.81 0.88 0.90 0.91 1.04 1.26 1.38 1.45 1.49 1.59 1.71 1.65 1.59 1.56 1.40 1.33 1.34 1.36 1.48 1.58 1.59 1.39 1.30 1.25 1.18 1.06 0.93 0.85 0.77 0.72 0.71 0.69 0.69 0.71 0.72 0.80 0.82 0.81
0.71 0.72 0.80 0.87 0.90 1.05 1.22 1.45 1.48 1.60 1.67 1.74 1.68 1.53 1.40 1.33 1.29 1.30 1.39 1.58 1.62 1.59 1.50 1.32 1.20 1.03 0.91 0.88 0.88 0.86 0.81 0.77 0.78 0.83 0.86 0.86 0.87 0.89
0.70 0.72 0.72 0.73 0.76 0.80 0.84 1.09 1.28 1.41 1.53 1.56 1.62 1.50 1.38 1.32 1.39 1.41 1.37 1.42 1.53 1.54 1.40 1.45 1.41 1.22 1.07 0.94 1.01 1.07 1.04 0.98 0.89 0.85 0.88 0.92 0.94 0.95
0.63 0.73 0.77 0.76 0.81 0.90 0.86 0.90 0.99 1.07 1.20 1.33 1.38 1.35 1.34 1.29 1.37 1.41 1.39 1.33 1.27 1.36 1.33 1.39 1.45 1.33 1.19 1.08 1.09 1.05 1.04 1.02 0.95 0.87 0.82 0.83 0.89 0.95
0.65 0.65 0.76 0.83 0.89 1.05 1.03 1.09 1.02 0.93 0.93 0.99 1.13 1.20 1.16 1.26 1.34 1.50 1.57 1.45 1.34 1.37 1.35 1.28 1.24 1.21 1.13 1.12 1.13 0.99 0.94 0.94 0.92 0.87 0.81 0.77 0.77 0.82
0.62 0.65 0.76 0.86 1.03 1.14 1.16 1.17 1.07 0.97 1.02 1.11 1.19 1.26 1.27 1.33 1.39 1.46 1.51 1.50 1.42 1.39 1.31 1.18 1.10 1.10 1.11 1.07 1.04 1.05 0.99 0.94 0.91 0.89 0.86 0.84 0.85 0.94
0.68 0.67 0.89 0.90 0.98 1.03 1.08 1.20 1.22 1.09 1.03 1.05 1.10 1.13 1.12 1.21 1.41 1.42 1.52 1.59 1.46 1.39 1.30 1.17 1.13 1.22 1.27 1.13 1.00 0.97 0.94 0.99 0.99 0.96 0.95 0.94 0.98 0.95
0.64 0.67 0.65 0.78 0.79 0.89 1.01 1.08 1.29 1.18 1.11 1.11 1.09 1.00 0.97 1.02 1.15 1.32 1.46 1.53 1.48 1.27 1.16 1.15 1.16 1.19 1.17 1.09 1.02 0.99 0.97 0.93 0.94 0.94 0.96 1.01 1.06 1.00
0.49 0.59 0.59 0.67 0.71 0.78 0.80 0.97 1.15 1.11 1.04 1.12 1.12 1.06 0.97 0.96 0.98 1.05 1.21 1.29 1.26 1.22 1.17 1.11 1.08 1.07 1.05 0.96 0.94 0.98 1.01 0.97 0.93 0.93 0.93 1.06 1.10 1.17
0.34 0.49 0.56 0.63 0.61 0.60 0.73 0.92 0.97 1.01 1.13 1.11 1.12 1.06 0.97 0.94 0.87 0.91 1.01 1.09 1.07 1.04 1.05 1.05 1.10 1.09 1.05 0.96 0.86 0.83 0.93 1.00 0.97 0.96 0.97 0.99 0.96 1.00
0.33 0.47 0.60 0.65 0.63 0.61 0.69 0.81 0.87 0.99 1.14 1.07 1.03 0.97 0.90 0.90 0.87 0.87 0.91 0.96 1.02 0.98 0.96 0.96 1.10 1.27 1.26 1.15 1.09 1.01 0.95 0.96 0.96 1.02 1.05 1.05 1.06 1.06
0.45 0.60 0.72 0.74 0.74 0.71 0.74 0.84 0.81 0.79 0.89 0.88 0.90 0.90 0.89 0.87 0.83 0.78 0.80 0.83 0.88 0.85 0.84 0.84 0.85 0.94 1.08 1.16 1.18 1.11 1.12 1.14 1.13 1.16 1.18 1.09 1.01 1.02
0.63 0.80 0.90 0.98 0.98 0.91 0.88 0.86 0.79 0.77 0.76 0.79 0.87 0.88 0.84 0.86 0.86 0.79 0.80 0.82 0.83 0.80 0.76 0.72 0.74 0.82 0.91 0.94 0.88 0.86 0.91 0.95 0.99 1.07 1.16 1.13 1.00 0.92
0.89 0.93 0.96 1.01 1.05 0.98 0.86 0.78 0.68 0.61 0.64 0.70 0.73 0.75 0.77 0.79 0.84 0.83 0.81 0.79 0.75 0.72 0.70 0.68 0.72 0.79 0.89 0.85 0.73 0.66 0.75 0.83 0.89 0.95 1.00 0.97 0.86 0.82
0.92 0.95 1.02 1.01 0.97 0.86 0.72 0.62 0.53 0.51 0.55 0.57 0.56 0.55 0.61 0.67 0.72 0.76 0.77 0.76 0.71 0.68 0.69 0.69 0.73 0.81 0.88 0.87 0.76 0.65 0.67 0.76 0.81 0.87 0.88 0.91 0.88 0.90
0.60 0.65 0.70 0.71 0.66 0.58 0.53 0.49 0.45 0.44 0.45 0.47 0.49 0.50 0.54 0.56 0.57 0.62 0.70 0.76 0.76 0.73 0.72 0.67 0.67 0.76 0.80 0.86 0.82 0.66 0.60 0.70 0.80 0.81 0.83 0.91 0.94 0.91
0.39 0.42 0.42 0.41 0.41 0.41 0.42 0.43 0.44 0.44 0.45 0.48 0.51 0.52 0.55 0.59 0.57 0.57 0.62 0.68 0.71 0.72 0.72 0.71 0.74 0.79 0.82 0.87 0.80 0.67 0.59 0.58 0.70 0.87 0.90 0.88 0.85 0.80
0.34 0.35 0.35 0.35 0.35 0.38 0.41 0.44 0.47 0.47 0.46 0.49 0.53 0.53 0.54 0.58 0.59 0.62 0.64 0.68 0.70 0.72 0.72 0.72 0.76 0.81 0.81 0.80 0.76 0.69 0.63 0.60 0.61 0.70 0.80 0.93 0.85 0.70

GEFSNE_prec_meanprecacc_228.txt.gz
Total_Precipitation_Accumulation
1.63 1.78 1.89 1.96 1.93 1.79 1.82 1.89 1.78 1.52 1.34 1.19 1.08 0.99 0.98 1.03 1.32 1.28 1.11 1.08 0.98 0.92 0.86 0.84 0.83 0.84 0.96 1.14 1.33 1.49 1.62 1.63 1.65 1.72 1.75 1.72 1.73 1.77
1.60 1.74 1.75 1.78 1.81 1.72 1.71 1.84 1.82 1.61 1.37 1.18 1.05 1.02 1.10 1.07 1.24 1.13 1.21 1.29 1.02 0.90 0.84 0.83 0.77 0.70 0.65 0.70 0.83 0.96 1.06 1.11 1.21 1.29 1.36 1.37 1.35 1.37
1.11 1.25 1.46 1.64 1.69 1.69 1.74 1.80 1.84 1.70 1.45 1.31 1.08 1.09 1.24 1.21 1.20 1.13 1.21 1.26 1.06 0.95 0.80 0.75 0.75 0.70 0.67 0.63 0.63 0.69 0.78 0.83 0.91 0.98 1.05 1.12 1.12 1.13
0.92 0.93 1.03 1.27 1.44 1.56 1.63 1.65 1.72 1.70 1.56 1.54 1.45 1.24 1.21 1.20 1.32 1.38 1.31 1.27 1.24 1.22 1.09 0.87 0.78 0.73 0.70 0.66 0.60 0.57 0.59 0.64 0.70 0.75 0.78 0.88 1.00 1.03
0.85 0.86 0.92 1.02 1.19 1.28 1.38 1.49 1.57 1.68 1.67 1.51 1.56 1.49 1.28 1.25 1.29 1.37 1.42 1.51 1.39 1.34 1.40 1.22 1.00 0.89 0.81 0.75 0.67 0.62 0.60 0.62 0.65 0.70 0.73 0.77 0.80 0.85
0.82 0.89 0.91 0.92 1.05 1.26 1.38 1.45 1.49 1.60 1.71 1.66 1.60 1.57 1.40 1.33 1.34 1.36 1.49 1.58 1.59 1.39 1.30 1.25 1.19 1.06 0.94 0.85 0.77 0.73 0.71 0.69 0.70 0.71 0.73 0.80 0.83 0.81
0.71 0.72 0.80 0.87 0.91 1.06 1.22 1.46 1.48 1.60 1.67 1.74 1.68 1.53 1.40 1.33 1.29 1.30 1.39 1.58 1.63 1.60 1.50 1.32 1.20 1.03 0.92 0.89 0.88 0.87 0.82 0.77 0.78 0.83 0.86 0.87 0.89 0.90
0.70 0.72 0.72 0.74 0.77 0.81 0.84 1.09 1.29 1.42 1.53 1.56 1.62 1.51 1.39 1.33 1.40 1.41 1.37 1.43 1.53 1.54 1.41 1.46 1.42 1.23 1.07 0.95 1.02 1.08 1.05 0.99 0.90 0.86 0.90 0.95 0.97 0.99
0.64 0.73 0.78 0.76 0.82 0.90 0.87 0.90 1.00 1.07 1.20 1.33 1.38 1.35 1.35 1.30 1.38 1.42 1.40 1.34 1.27 1.36 1.34 1.40 1.45 1.34 1.20 1.09 1.09 1.06 1.05 1.02 0.96 0.88 0.83 0.85 0.90 0.98
0.65 0.65 0.77 0.83 0.90 1.06 1.04 1.09 1.02 0.93 0.94 0.99 1.13 1.21 1.17 1.27 1.35 1.52 1.58 1.46 1.35 1.37 1.36 1.28 1.25 1.22 1.14 1.13 1.14 1.00 0.94 0.94 0.92 0.87 0.81 0.77 0.78 0.83
0.63 0.65 0.77 0.87 1.04 1.15 1.17 1.18 1.07 0.98 1.02 1.11 1.19 1.26 1.28 1.34 1.40 1.47 1.53 1.51 1.42 1.39 1.32 1.19 1.11 1.12 1.12 1.09 1.06 1.07 1.00 0.95 0.92 0.89 0.87 0.84 0.86 0.95
0.69 0.68 0.90 0.91 1.00 1.05 1.10 1.22 1.23 1.10 1.03 1.05 1.10 1.13 1.12 1.22 1.42 1.43 1.53 1.61 1.48 1.40 1.30 1.18 1.14 1.23 1.29 1.14 1.01 0.98 0.95 1.00 1.00 0.97 0.96 0.95 0.99 0.96
0.66 0.69 0.67 0.80 0.81 0.91 1.02 1.09 1.31 1.19 1.12 1.12 1.10 1.01 0.97 1.03 1.16 1.33 1.47 1.55 1.49 1.28 1.17 1.17 1.17 1.20 1.18 1.10 1.03 1.00 0.98 0.94 0.95 0.95 0.97 1.02 1.07 1.01
0.51 0.61 0.60 0.69 0.73 0.79 0.81 0.98 1.16 1.12 1.06 1.13 1.14 1.07 0.98 0.97 1.00 1.06 1.22 1.30 1.27 1.23 1.18 1.13 1.10 1.08 1.06 0.98 0.95 0.99 1.02 0.98 0.94 0.94 0.94 1.07 1.11 1.18
0.36 0.51 0.57 0.65 0.63 0.62 0.74 0.93 0.98 1.02 1.15 1.12 1.13 1.07 0.98 0.95 0.89 0.93 1.03 1.10 1.08 1.06 1.07 1.08 1.13 1.11 1.08 0.99 0.88 0.84 0.94 1.02 0.98 0.97 0.98 1.00 0.97 1.01
0.35 0.49 0.61 0.67 0.64 0.63 0.70 0.82 0.88 1.01 1.16 1.08 1.04 0.98 0.91 0.92 0.91 0.90 0.92 0.98 1.04 1.01 0.99 0.99 1.13 1.30 1.30 1.18 1.12 1.03 0.97 0.98 0.98 1.04 1.06 1.06 1.06 1.06
0.46 0.61 0.73 0.75 0.75 0.72 0.76 0.85 0.83 0.81 0.91 0.90 0.92 0.92 0.91 0.90 0.86 0.80 0.83 0.86 0.91 0.87 0.87 0.87 0.89 0.98 1.12 1.20 1.22 1.15 1.15 1.17 1.15 1.18 1.20 1.11 1.02 1.03
0.65 0.81 0.91 0.99 0.99 0.93 0.89 0.88 0.81 0.79 0.78 0.81 0.89 0.90 0.87 0.89 0.88 0.82 0.83 0.86 0.86 0.82 0.79 0.75 0.78 0.86 0.94 0.98 0.92 0.91 0.95 0.99 1.02 1.10 1.18 1.15 1.01 0.93
0.91 0.94 0.97 1.02 1.06 0.99 0.88 0.80 0.69 0.64 0.67 0.73 0.76 0.77 0.80 0.82 0.86 0.85 0.84 0.82 0.78 0.75 0.73 0.71 0.75 0.83 0.92 0.88 0.76 0.69 0.78 0.86 0.91 0.97 1.02 0.99 0.88 0.84
0.94 0.97 1.03 1.02 0.98 0.87 0.73 0.64 0.55 0.53 0.57 0.60 0.59 0.58 0.64 0.70 0.74 0.78 0.80 0.78 0.74 0.71 0.72 0.71 0.76 0.84 0.92 0.90 0.79 0.67 0.69 0.78 0.83 0.88 0.89 0.92 0.89 0.91
0.63 0.67 0.71 0.72 0.67 0.60 0.54 0.51 0.47 0.45 0.47 0.49 0.52 0.53 0.58 0.59 0.60 0.65 0.73 0.80 0.80 0.77 0.75 0.70 0.70 0.79 0.82 0.89 0.84 0.68 0.61 0.71 0.81 0.82 0.83 0.92 0.94 0.92
0.42 0.44 0.45 0.42 0.41 0.42 0.43 0.44 0.45 0.45 0.47 0.50 0.53 0.54 0.59 0.63 0.60 0.60 0.65 0.71 0.74 0.76 0.75 0.74 0.76 0.81 0.84 0.88 0.81 0.69 0.60 0.59 0.71 0.88 0.90 0.88 0.85 0.81
0.37 0.38 0.37 0.36 0.36 0.38 0.43 0.46 0.49 0.49 0.48 0.51 0.55 0.55 0.57 0.61 0.63 0.65 0.67 0.70 0.73 0.74 0.75 0.74 0.78 0.83 0.83 0.81 0.77 0.70 0.64 0.60 0.61 0.70 0.81 0.93 0.85 0.70

GEFSNE_prec_meanprecacc_234.txt.gz
Total_Precipitation_Accumulation
1.65 1.82 1.94 2.04 2.01 1.83 1.85 1.92 1.80 1.53 1.36 1.19 1.08 0.99 0.98 1.03 1.33 1.28 1.12 1.08 0.98 0.92 0.87 0.84 0.83 0.84 0.96 1.15 1.34 1.50 1.62 1.64 1.67 1.74 1.81 1.76 1.76 1.79
1.63 1.77 1.79 1.83 1.88 1.77 1.74 1.86 1.84 1.63 1.39 1.19 1.05 1.02 1.10 1.07 1.24 1.14 1.22 1.29 1.02 0.90 0.84 0.83 0.77 0.70 0.65 0.70 0.83 0.96 1.06 1.11 1.21 1.29 1.37 1.37 1.36 1.38
1.15 1.29 1.49 1.67 1.75 1.75 1.78 1.83 1.87 1.74 1.47 1.32 1.09 1.09 1.25 1.22 1.20 1.14 1.22 1.27 1.06 0.95 0.81 0.76 0.75 0.70 0.67 0.63 0.63 0.69 0.78 0.84 0.91 0.98 1.06 1.12 1.13 1.14
0.94 0.96 1.07 1.30 1.47 1.60 1.66 1.68 1.75 1.73 1.58 1.55 1.45 1.24 1.21 1.21 1.32 1.39 1.31 1.28 1.24 1.22 1.09 0.88 0.79 0.74 0.71 0.66 0.60 0.57 0.59 0.64 0.70 0.75 0.78 0.89 1.00 1.04
0.86 0.88 0.96 1.07 1.24 1.32 1.40 1.50 1.58 1.69 1.68 1.51 1.56 1.49 1.29 1.25 1.29 1.37 1.42 1.51 1.40 1.34 1.40 1.23 1.01 0.89 0.82 0.75 0.67 0.63 0.61 0.63 0.65 0.70 0.74 0.77 0.80 0.85
0.83 0.90 0.93 0.96 1.12 1.32 1.41 1.47 1.50 1.60 1.72 1.66 1.60 1.57 1.41 1.34 1.34 1.37 1.49 1.59 1.59 1.39 1.30 1.26 1.19 1.07 0.94 0.86 0.78 0.73 0.72 0.70 0.70 0.71 0.73 0.81 0.83 0.82
0.72 0.73 0.81 0.89 0.96 1.12 1.26 1.48 1.50 1.61 1.68 1.75 1.69 1.54 1.40 1.33 1.30 1.30 1.39 1.59 1.63 1.60 1.51 1.33 1.21 1.04 0.92 0.90 0.89 0.87 0.83 0.78 0.79 0.84 0.87 0.88 0.89 0.91
0.70 0.73 0.73 0.75 0.79 0.84 0.87 1.12 1.31 1.43 1.54 1.57 1.63 1.52 1.39 1.33 1.41 1.42 1.38 1.43 1.53 1.55 1.42 1.47 1.43 1.24 1.08 0.95 1.02 1.08 1.06 1.00 0.91 0.88 0.91 0.96 0.99 1.01
0.64 0.73 0.78 0.77 0.83 0.92 0.88 0.92 1.02 1.09 1.22 1.34 1.39 1.36 1.35 1.31 1.39 1.43 1.41 1.35 1.28 1.37 1.35 1.41 1.46 1.35 1.20 1.09 1.10 1.07 1.05 1.03 0.97 0.89 0.85 0.87 0.92 0.99
0.66 0.66 0.77 0.84 0.91 1.08 1.05 1.10 1.03 0.94 0.95 1.00 1.14 1.21 1.18 1.27 1.36 1.52 1.59 1.47 1.35 1.38 1.36 1.29 1.26 1.22 1.14 1.13 1.15 1.01 0.95 0.95 0.93 0.89 0.82 0.78 0.79 0.84
0.63 0.66 0.78 0.88 1.05 1.16 1.18 1.19 1.08 0.99 1.03 1.12 1.20 1.27 1.29 1.35 1.41 1.48 1.54 1.53 1.44 1.40 1.32 1.20 1.11 1.12 1.12 1.09 1.07 1.07 1.01 0.96 0.92 0.90 0.87 0.85 0.87 0.96
0.69 0.69 0.91 0.92 1.01 1.06 1.11 1.23 1.25 1.11 1.04 1.07 1.11 1.14 1.13 1.23 1.43 1.44 1.55 1.63 1.50 1.42 1.31 1.19 1.15 1.24 1.29 1.15 1.02 0.99 0.96 1.01 1.01 0.98 0.96 0.96 1.00 0.97
0.66 0.69 0.67 0.81 0.82 0.92 1.03 1.10 1.32 1.21 1.13 1.14 1.12 1.02 0.99 1.05 1.18 1.35 1.49 1.57 1.52 1.31 1.19 1.18 1.18 1.21 1.19 1.11 1.04 1.01 0.98 0.95 0.96 0.95 0.97 1.03 1.07 1.01
0.52 0.61 0.61 0.70 0.73 0.80 0.82 0.99 1.17 1.14 1.07 1.15 1.16 1.09 1.00 0.99 1.02 1.09 1.25 1.33 1.29 1.26 1.20 1.15 1.12 1.10 1.08 0.99 0.97 1.01 1.03 0.99 0.96 0.95 0.95 1.09 1.12 1.18
0.36 0.51 0.58 0.66 0.63 0.62 0.75 0.94 1.00 1.03 1.17 1.14 1.15 1.09 1.00 0.97 0.92 0.97 1.08 1.15 1.12 1.09 1.10 1.10 1.15 1.14 1.11 1.01 0.90 0.86 0.96 1.03 1.00 0.99 1.00 1.02 0.98 1.02
0.36 0.50 0.62 0.68 0.66 0.63 0.70 0.83 0.88 1.02 1.17 1.10 1.06 1.00 0.93 0.95 0.94 0.93 0.96 1.02 1.08 1.05 1.02 1.02 1.15 1.33 1.33 1.21 1.15 1.06 0.99 1.01 1.00 1.06 1.09 1.09 1.09 1.08
0.47 0.62 0.75 0.76 0.77 0.73 0.76 0.86 0.83 0.81 0.91 0.91 0.93 0.94 0.94 0.93 0.88 0.83 0.86 0.90 0.95 0.91 0.90 0.90 0.91 1.00 1.15 1.23 1.26 1.18 1.18 1.21 1.19 1.21 1.24 1.15 1.05 1.05
0.66 0.82 0.92 1.00 1.00 0.94 0.89 0.88 0.81 0.79 0.79 0.82 0.91 0.92 0.89 0.91 0.91 0.85 0.86 0.89 0.90 0.86 0.82 0.78 0.80 0.88 0.97 1.01 0.96 0.94 0.99 1.03 1.06 1.14 1.23 1.19 1.06 0.96
0.91 0.95 0.99 1.04 1.07 1.00 0.89 0.80 0.70 0.65 0.68 0.75 0.77 0.79 0.82 0.85 0.90 0.89 0.88 0.86 0.82 0.79 0.76 0.73 0.77 0.84 0.94 0.90 0.78 0.72 0.82 0.90 0.96 1.01 1.06 1.03 0.92 0.87
0.95 0.98 1.05 1.04 1.00 0.88 0.74 0.65 0.56 0.54 0.58 0.61 0.61 0.59 0.66 0.72 0.77 0.81 0.83 0.82 0.78 0.75 0.75 0.74 0.78 0.86 0.94 0.92 0.81 0.70 0.72 0.81 0.87 0.92 0.93 0.96 0.93 0.96
0.64 0.68 0.72 0.74 0.69 0.61 0.55 0.52 0.48 0.46 0.48 0.50 0.53 0.54 0.60 0.62 0.63 0.68 0.76 0.84 0.84 0.81 0.79 0.73 0.73 0.81 0.85 0.91 0.87 0.71 0.64 0.74 0.84 0.85 0.87 0.95 0.98 0.95
0.44 0.46 0.46 0.44 0.44 0.44 0.45 0.45 0.46 0.46 0.47 0.50 0.53 0.56 0.60 0.65 0.62 0.63 0.68 0.74 0.78 0.79 0.78 0.77 0.79 0.85 0.87 0.91 0.84 0.71 0.62 0.62 0.74 0.91 0.93 0.91 0.88 0.83
0.40 0.41 0.40 0.39 0.39 0.42 0.45 0.48 0.51 0.51 0.50 0.53 0.56 0.57 0.58 0.63 0.65 0.67 0.69 0.73 0.76 0.77 0.78 0.78 0.81 0.86 0.86 0.84 0.79 0.72 0.66 0.63 0.64 0.73 0.83 0.95 0.87 0.71

GEFSNE_prec_meanprecacc_240.txt.gz
Total_Precipitation_Accumulation
1.67 1.84 1.99 2.08 2.05 1.86 1.89 1.98 1.87 1.60 1.41 1.24 1.12 1.03 1.02 1.05 1.34 1.29 1.13 1.09 0.98 0.92 0.88 0.85 0.85 0.85 0.98 1.18 1.36 1.51 1.63 1.65 1.68 1.76 1.85 1.86 1.80 1.81
1.65 1.79 1.82 1.87 1.92 1.80 1.78 1.91 1.89 1.69 1.44 1.22 1.07 1.04 1.12 1.08 1.25 1.14 1.22 1.30 1.02 0.90 0.84 0.84 0.78 0.71 0.65 0.70 0.83 0.96 1.06 1.12 1.22 1.30 1.38 1.40 1.38 1.41
1.16 1.31 1.51 1.69 1.77 1.77 1.81 1.86 1.91 1.78 1.52 1.35 1.11 1.11 1.26 1.23 1.21 1.15 1.22 1.27 1.06 0.95 0.81 0.76 0.75 0.70 0.68 0.63 0.64 0.70 0.78 0.84 0.91 0.98 1.06 1.13 1.14 1.15
0.95 0.97 1.08 1.31 1.48 1.61 1.69 1.71 1.78 1.76 1.61 1.57 1.48 1.27 1.23 1.22 1.33 1.40 1.32 1.28 1.24 1.22 1.09 0.88 0.79 0.74 0.71 0.67 0.61 0.58 0.59 0.64 0.70 0.75 0.78 0.89 1.01 1.04
0.87 0.89 0.98 1.08 1.25 1.33 1.42 1.53 1.60 1.72 1.70 1.53 1.58 1.53 1.32 1.28 1.31 1.38 1.43 1.52 1.40 1.35 1.41 1.23 1.01 0.90 0.83 0.76 0.69 0.63 0.62 0.63 0.66 0.71 0.74 0.78 0.81 0.86
0.85 0.92 0.94 0.97 1.13 1.34 1.43 1.49 1.52 1.63 1.75 1.69 1.62 1.59 1.43 1.36 1.36 1.38 1.50 1.60 1.61 1.40 1.31 1.26 1.20 1.08 0.95 0.87 0.79 0.74 0.73 0.71 0.71 0.72 0.74 0.82 0.83 0.82
0.74 0.75 0.82 0.90 0.97 1.16 1.29 1.51 1.52 1.63 1.71 1.78 1.71 1.56 1.42 1.36 1.32 1.31 1.40 1.59 1.64 1.61 1.52 1.34 1.22 1.05 0.93 0.90 0.90 0.88 0.84 0.80 0.81 0.86 0.89 0.89 0.91 0.92
0.72 0.74 0.73 0.76 0.80 0.87 0.91 1.15 1.34 1.46 1.57 1.59 1.65 1.54 1.42 1.36 1.43 1.43 1.39 1.44 1.54 1.56 1.43 1.48 1.44 1.25 1.09 0.96 1.04 1.10 1.07 1.02 0.93 0.89 0.93 0.98 1.00 1.02
0.66 0.74 0.79 0.77 0.84 0.93 0.91 0.96 1.06 1.12 1.25 1.37 1.42 1.39 1.38 1.33 1.41 1.45 1.42 1.36 1.29 1.38 1.36 1.42 1.47 1.36 1.21 1.10 1.10 1.07 1.06 1.04 0.98 0.91 0.87 0.88 0.94 1.01
0.69 0.68 0.78 0.85 0.92 1.09 1.07 1.13 1.08 0.98 0.98 1.04 1.18 1.25 1.21 1.30 1.37 1.54 1.60 1.48 1.36 1.39 1.37 1.30 1.26 1.23 1.15 1.14 1.15 1.01 0.95 0.96 0.94 0.90 0.83 0.80 0.80 0.86
0.66 0.68 0.78 0.88 1.06 1.18 1.20 1.21 1.12 1.02 1.06 1.17 1.25 1.31 1.32 1.37 1.43 1.50 1.56 1.55 1.46 1.42 1.33 1.21 1.12 1.13 1.13 1.10 1.07 1.08 1.01 0.96 0.92 0.90 0.88 0.86 0.88 0.97
0.72 0.71 0.92 0.93 1.02 1.07 1.12 1.25 1.27 1.13 1.06 1.09 1.14 1.17 1.16 1.24 1.45 1.47 1.57 1.66 1.53 1.44 1.32 1.20 1.16 1.25 1.30 1.16 1.03 1.00 0.96 1.01 1.01 0.98 0.97 0.96 1.01 0.98
0.69 0.71 0.68 0.82 0.83 0.93 1.05 1.12 1.34 1.22 1.14 1.15 1.12 1.04 1.01 1.06 1.19 1.37 1.52 1.60 1.55 1.34 1.21 1.20 1.20 1.23 1.21 1.12 1.05 1.02 1.00 0.96 0.97 0.96 0.98 1.03 1.08 1.03
0.54 0.63 0.62 0.71 0.75 0.81 0.83 1.01 1.18 1.15 1.08 1.16 1.17 1.10 1.01 1.01 1.04 1.11 1.28 1.36 1.33 1.29 1.23 1.19 1.16 1.13 1.11 1.02 0.98 1.02 1.05 1.01 0.97 0.97 0.96 1.10 1.14 1.20
0.38 0.53 0.60 0.67 0.65 0.64 0.76 0.95 1.01 1.04 1.18 1.15 1.17 1.10 1.01 0.99 0.94 0.99 1.11 1.18 1.16 1.13 1.14 1.14 1.19 1.18 1.14 1.04 0.92 0.88 0.98 1.05 1.02 1.01 1.02 1.04 1.00 1.05
0.37 0.52 0.64 0.69 0.67 0.65 0.72 0.84 0.89 1.02 1.18 1.11 1.07 1.01 0.94 0.96 0.96 0.95 0.99 1.06 1.12 1.08 1.06 1.06 1.19 1.37 1.38 1.25 1.18 1.08 1.02 1.03 1.02 1.08 1.12 1.11 1.11 1.11
0.49 0.65 0.77 0.78 0.79 0.76 0.79 0.88 0.85 0.82 0.92 0.92 0.94 0.95 0.94 0.94 0.90 0.85 0.89 0.94 0.98 0.95 0.94 0.94 0.95 1.05 1.20 1.28 1.30 1.22 1.21 1.23 1.21 1.23 1.26 1.17 1.07 1.07
0.68 0.84 0.94 1.02 1.02 0.97 0.93 0.91 0.83 0.80 0.80 0.83 0.92 0.93 0.90 0.92 0.92 0.87 0.88 0.92 0.93 0.89 0.86 0.82 0.85 0.93 1.02 1.06 1.00 0.98 1.02 1.06 1.08 1.17 1.25 1.22 1.08 0.98
0.94 0.97 1.01 1.06 1.09 1.03 0.93 0.84 0.72 0.65 0.69 0.76 0.78 0.80 0.83 0.86 0.91 0.91 0.90 0.88 0.84 0.82 0.80 0.77 0.81 0.89 0.99 0.94 0.82 0.75 0.85 0.93 0.99 1.04 1.09 1.05 0.94 0.89
0.98 1.01 1.08 1.07 1.02 0.91 0.78 0.68 0.58 0.55 0.59 0.62 0.62 0.60 0.67 0.74 0.79 0.84 0.86 0.84 0.80 0.78 0.78 0.77 0.82 0.90 0.97 0.95 0.84 0.73 0.75 0.84 0.90 0.95 0.96 0.99 0.96 0.98
0.67 0.72 0.76 0.77 0.72 0.63 0.57 0.55 0.50 0.48 0.48 0.51 0.54 0.55 0.61 0.63 0.65 0.70 0.78 0.86 0.86 0.83 0.81 0.76 0.77 0.85 0.88 0.95 0.90 0.73 0.67 0.78 0.87 0.88 0.89 0.98 1.01 0.98
0.46 0.49 0.49 0.47 0.46 0.47 0.47 0.48 0.48 0.48 0.49 0.51 0.54 0.57 0.61 0.66 0.64 0.64 0.70 0.76 0.80 0.82 0.81 0.79 0.82 0.88 0.91 0.95 0.87 0.74 0.65 0.65 0.78 0.95 0.96 0.94 0.90 0.86
0.42 0.44 0.44 0.42 0.42 0.44 0.48 0.50 0.53 0.53 0.51 0.54 0.58 0.58 0.60 0.64 0.66 0.68 0.71 0.74 0.78 0.79 0.80 0.80 0.84 0.89 0.89 0.86 0.82 0.75 0.70 0.66 0.67 0.76 0.86 0.98 0.89 0.73

GEFSNE_prec_meanprecacc_246.txt.gz
Total_Precipitation_Accumulation
1.68 1.85 2.00 2.10 2.07 1.88 1.91 2.01 1.90 1.61 1.43 1.27 1.17 1.09 1.08 1.13 1.39 1.31 1.14 1.11 1.00 0.95 0.89 0.87 0.86 0.87 1.01 1.21 1.39 1.54 1.66 1.68 1.71 1.78 1.87 1.88 1.82 1.83
1.67 1.80 1.83 1.88 1.93 1.81 1.79 1.92 1.91 1.70 1.46 1.25 1.11 1.08 1.15 1.10 1.26 1.15 1.24 1.31 1.03 0.91 0.85 0.84 0.78 0.72 0.67 0.72 0.85 0.98 1.08 1.14 1.24 1.33 1.41 1.42 1.40 1.43
1.18 1.31 1.51 1.70 1.78 1.77 1.81 1.87 1.93 1.80 1.54 1.38 1.14 1.13 1.28 1.24 1.22 1.15 1.23 1.28 1.07 0.96 0.81 0.76 0.75 0.70 0.68 0.64 0.65 0.71 0.80 0.85 0.92 1.00 1.08 1.15 1.15 1.17
0.96 0.98 1.09 1.32 1.49 1.62 1.69 1.72 1.80 1.78 1.63 1.59 1.50 1.29 1.25 1.23 1.34 1.40 1.32 1.29 1.25 1.24 1.10 0.88 0.79 0.74 0.72 0.68 0.62 0.59 0.60 0.65 0.71 0.76 0.79 0.90 1.02 1.06
0.88 0.90 0.98 1.09 1.26 1.34 1.43 1.54 1.62 1.74 1.72 1.55 1.60 1.56 1.35 1.30 1.32 1.39 1.44 1.53 1.41 1.36 1.42 1.24 1.02 0.91 0.84 0.77 0.69 0.65 0.63 0.65 0.67 0.72 0.75 0.79 0.82 0.87
0.86 0.93 0.95 0.98 1.14 1.36 1.44 1.50 1.54 1.64 1.76 1.69 1.63 1.61 1.46 1.40 1.38 1.39 1.51 1.61 1.62 1.41 1.32 1.27 1.21 1.09 0.96 0.88 0.80 0.75 0.74 0.72 0.72 0.73 0.75 0.83 0.85 0.83
0.75 0.76 0.83 0.91 0.98 1.17 1.30 1.51 1.53 1.64 1.71 1.78 1.71 1.57 1.44 1.39 1.36 1.34 1.42 1.61 1.65 1.62 1.53 1.35 1.23 1.06 0.95 0.92 0.92 0.89 0.84 0.80 0.81 0.87 0.90 0.91 0.92 0.95
0.72 0.74 0.74 0.77 0.81 0.88 0.91 1.16 1.35 1.47 1.57 1.60 1.66 1.55 1.43 1.37 1.46 1.46 1.42 1.46 1.56 1.57 1.44 1.49 1.45 1.26 1.10 0.97 1.04 1.11 1.08 1.03 0.94 0.90 0.94 0.99 1.02 1.04
0.66 0.75 0.79 0.78 0.85 0.94 0.92 0.97 1.07 1.14 1.27 1.38 1.42 1.39 1.38 1.34 1.43 1.47 1.45 1.38 1.31 1.39 1.37 1.43 1.48 1.36 1.22 1.10 1.11 1.07 1.06 1.05 0.99 0.91 0.87 0.89 0.94 1.02
0.70 0.68 0.78 0.85 0.93 1.10 1.08 1.15 1.09 0.99 1.00 1.06 1.19 1.26 1.22 1.31 1.39 1.56 1.63 1.50 1.39 1.41 1.39 1.32 1.28 1.24 1.16 1.15 1.16 1.01 0.96 0.96 0.94 0.90 0.84 0.80 0.81 0.86
0.68 0.69 0.79 0.89 1.07 1.19 1.21 1.22 1.13 1.05 1.10 1.19 1.26 1.32 1.34 1.39 1.45 1.52 1.58 1.58 1.48 1.44 1.35 1.23 1.14 1.14 1.14 1.11 1.08 1.09 1.02 0.97 0.93 0.91 0.88 0.86 0.88 0.97
0.74 0.72 0.93 0.93 1.02 1.08 1.14 1.26 1.28 1.15 1.11 1.12 1.16 1.19 1.18 1.26 1.47 1.49 1.60 1.69 1.55 1.46 1.35 1.24 1.20 1.30 1.35 1.18 1.05 1.02 0.98 1.03 1.02 0.99 0.97 0.97 1.01 0.99
0.71 0.73 0.69 0.83 0.85 0.95 1.07 1.14 1.37 1.25 1.19 1.20 1.16 1.07 1.04 1.09 1.21 1.39 1.54 1.62 1.57 1.36 1.23 1.23 1.24 1.27 1.27 1.17 1.09 1.05 1.03 0.98 0.99 0.98 0.99 1.04 1.09 1.03
0.56 0.64 0.63 0.73 0.77 0.84 0.86 1.04 1.23 1.18 1.12 1.20 1.22 1.14 1.06 1.05 1.07 1.14 1.30 1.37 1.34 1.31 1.25 1.22 1.21 1.18 1.16 1.07 1.03 1.05 1.08 1.03 0.99 0.99 0.98 1.11 1.15 1.21
0.39 0.54 0.61 0.69 0.67 0.66 0.79 0.99 1.05 1.08 1.21 1.18 1.20 1.14 1.05 1.03 0.96 1.01 1.12 1.19 1.16 1.13 1.15 1.17 1.23 1.23 1.20 1.10 0.97 0.92 1.02 1.09 1.05 1.04 1.05 1.06 1.02 1.06
0.39 0.53 0.65 0.71 0.68 0.67 0.75 0.88 0.94 1.06 1.20 1.13 1.09 1.03 0.96 0.97 0.96 0.96 1.00 1.07 1.13 1.10 1.07 1.07 1.22 1.41 1.42 1.30 1.23 1.13 1.07 1.08 1.06 1.12 1.15 1.15 1.14 1.13
0.51 0.66 0.78 0.79 0.80 0.78 0.81 0.91 0.90 0.87 0.94 0.93 0.95 0.96 0.95 0.95 0.91 0.86 0.90 0.95 0.99 0.96 0.95 0.95 0.97 1.07 1.24 1.33 1.35 1.27 1.27 1.29 1.26 1.29 1.31 1.21 1.11 1.11
0.70 0.86 0.96 1.03 1.03 0.98 0.95 0.93 0.87 0.84 0.81 0.83 0.92 0.94 0.90 0.93 0.93 0.87 0.89 0.92 0.94 0.90 0.87 0.84 0.87 0.95 1.05 1.10 1.05 1.03 1.07 1.12 1.14 1.22 1.30 1.26 1.11 1.01
0.95 0.99 1.02 1.07 1.10 1.04 0.94 0.86 0.75 0.68 0.71 0.78 0.80 0.81 0.84 0.87 0.92 0.92 0.90 0.88 0.85 0.82 0.81 0.78 0.83 0.92 1.02 0.97 0.85 0.79 0.89 0.98 1.04 1.10 1.15 1.10 0.97 0.91
0.99 1.02 1.10 1.08 1.03 0.92 0.79 0.70 0.60 0.58 0.62 0.64 0.64 0.62 0.68 0.75 0.80 0.84 0.86 0.85 0.81 0.79 0.79 0.78 0.83 0.92 1.02 1.00 0.89 0.77 0.81 0.90 0.95 1.00 1.01 1.03 0.99 1.02
0.69 0.74 0.78 0.80 0.74 0.65 0.59 0.56 0.52 0.51 0.52 0.54 0.56 0.57 0.62 0.64 0.66 0.71 0.79 0.87 0.88 0.85 0.83 0.78 0.80 0.90 0.93 0.98 0.93 0.77 0.71 0.82 0.90 0.91 0.92 1.02 1.06 1.03
0.48 0.51 0.51 0.49 0.48 0.49 0.50 0.50 0.51 0.51 0.52 0.54 0.57 0.59 0.63 0.67 0.65 0.65 0.71 0.77 0.81 0.83 0.82 0.81 0.83 0.89 0.92 0.97 0.89 0.77 0.68 0.68 0.80 0.97 0.98 0.97 0.94 0.90
0.44 0.46 0.46 0.45 0.44 0.46 0.50 0.53 0.55 0.55 0.54 0.56 0.60 0.61 0.63 0.67 0.67 0.70 0.72 0.76 0.79 0.80 0.81 0.81 0.85 0.90 0.90 0.88 0.84 0.78 0.73 0.70 0.71 0.80 0.90 1.01 0.92 0.76

GEFSNE_prec_meanprecacc_252.txt.gz
Total_Precipitation_Accumulation
1.69 1.85 2.00 2.10 2.07 1.89 1.91 2.02 1.91 1.62 1.43 1.28 1.19 1.14 1.15 1.19 1.46 1.37 1.18 1.14 1.03 0.97 0.92 0.89 0.88 0.89 1.03 1.23 1.41 1.57 1.68 1.70 1.73 1.81 1.89 1.91 1.85 1.86
1.68 1.81 1.83 1.88 1.93 1.81 1.80 1.93 1.92 1.72 1.48 1.28 1.14 1.10 1.18 1.14 1.30 1.19 1.28 1.35 1.06 0.94 0.88 0.87 0.81 0.74 0.69 0.75 0.87 1.00 1.10 1.15 1.26 1.35 1.43 1.44 1.43 1.46
1.19 1.32 1.52 1.71 1.79 1.78 1.82 1.88 1.93 1.81 1.55 1.41 1.17 1.16 1.31 1.27 1.24 1.18 1.26 1.31 1.11 0.99 0.85 0.79 0.77 0.71 0.70 0.65 0.66 0.73 0.81 0.87 0.94 1.02 1.09 1.17 1.17 1.19
0.98 1.00 1.10 1.34 1.51 1.64 1.71 1.73 1.81 1.79 1.64 1.61 1.52 1.30 1.26 1.25 1.36 1.42 1.35 1.31 1.28 1.26 1.12 0.90 0.81 0.76 0.73 0.69 0.63 0.60 0.61 0.66 0.72 0.77 0.80 0.91 1.03 1.07
0.90 0.91 0.99 1.11 1.27 1.36 1.44 1.55 1.63 1.75 1.74 1.56 1.61 1.57 1.36 1.31 1.33 1.40 1.46 1.55 1.43 1.38 1.44 1.26 1.04 0.92 0.84 0.78 0.70 0.65 0.64 0.65 0.67 0.72 0.76 0.80 0.83 0.88
0.87 0.94 0.96 0.98 1.15 1.36 1.45 1.52 1.55 1.66 1.78 1.71 1.64 1.62 1.47 1.41 1.39 1.40 1.52 1.62 1.63 1.43 1.34 1.30 1.24 1.12 0.98 0.89 0.80 0.75 0.74 0.72 0.73 0.74 0.76 0.83 0.85 0.84
0.75 0.76 0.84 0.91 0.99 1.18 1.30 1.52 1.55 1.66 1.73 1.80 1.73 1.58 1.45 1.40 1.38 1.36 1.43 1.62 1.67 1.63 1.55 1.37 1.25 1.09 0.98 0.95 0.93 0.91 0.86 0.81 0.82 0.87 0.91 0.91 0.93 0.95
0.73 0.74 0.74 0.77 0.81 0.88 0.92 1.16 1.36 1.48 1.58 1.60 1.66 1.55 1.43 1.38 1.47 1.48 1.44 1.48 1.57 1.58 1.45 1.51 1.48 1.29 1.13 1.00 1.08 1.14 1.11 1.05 0.95 0.91 0.95 1.00 1.02 1.04
0.67 0.75 0.80 0.78 0.85 0.94 0.92 0.97 1.07 1.14 1.27 1.39 1.43 1.39 1.39 1.35 1.44 1.48 1.46 1.39 1.31 1.40 1.38 1.44 1.49 1.38 1.24 1.13 1.14 1.11 1.10 1.07 1.01 0.94 0.89 0.90 0.95 1.02
0.70 0.69 0.79 0.86 0.93 1.10 1.08 1.15 1.09 1.00 1.00 1.06 1.19 1.26 1.22 1.32 1.40 1.56 1.64 1.52 1.40 1.42 1.40 1.33 1.28 1.25 1.17 1.16 1.18 1.04 0.98 0.98 0.96 0.92 0.86 0.83 0.83 0.88
0.69 0.70 0.80 0.90 1.08 1.20 1.21 1.22 1.13 1.05 1.11 1.20 1.26 1.33 1.34 1.40 1.46 1.53 1.59 1.60 1.51 1.45 1.37 1.24 1.15 1.14 1.15 1.11 1.09 1.10 1.04 0.99 0.95 0.93 0.91 0.88 0.90 0.99
0.75 0.73 0.93 0.94 1.04 1.09 1.14 1.26 1.29 1.16 1.11 1.13 1.16 1.20 1.19 1.27 1.48 1.49 1.60 1.70 1.58 1.49 1.37 1.26 1.21 1.31 1.36 1.19 1.05 1.03 1.00 1.05 1.05 1.02 1.01 1.00 1.04 1.01
0.72 0.73 0.70 0.83 0.85 0.96 1.08 1.15 1.37 1.26 1.20 1.21 1.17 1.07 1.05 1.09 1.21 1.40 1.54 1.63 1.59 1.38 1.26 1.26 1.26 1.29 1.28 1.18 1.09 1.06 1.04 1.00 1.01 1.01 1.02 1.07 1.12 1.06
0.58 0.65 0.64 0.73 0.78 0.85 0.87 1.05 1.24 1.20 1.14 1.23 1.23 1.16 1.07 1.06 1.08 1.15 1.32 1.39 1.36 1.33 1.27 1.25 1.23 1.19 1.17 1.07 1.03 1.06 1.09 1.05 1.02 1.01 1.01 1.14 1.18 1.24
0.40 0.55 0.62 0.70 0.69 0.68 0.80 1.00 1.06 1.09 1.23 1.20 1.22 1.18 1.09 1.06 1.00 1.05 1.16 1.21 1.18 1.14 1.15 1.17 1.24 1.23 1.21 1.11 0.98 0.93 1.03 1.10 1.07 1.06 1.07 1.09 1.05 1.09
0.40 0.55 0.67 0.73 0.70 0.69 0.76 0.89 0.95 1.08 1.24 1.14 1.10 1.06 1.01 1.03 1.01 1.00 1.03 1.09 1.15 1.10 1.07 1.07 1.22 1.41 1.43 1.30 1.23 1.14 1.08 1.10 1.08 1.14 1.17 1.18 1.17 1.16
0.53 0.68 0.80 0.81 0.82 0.79 0.82 0.92 0.90 0.88 0.96 0.94 0.97 0.99 0.99 0.99 0.95 0.89 0.92 0.96 1.01 0.97 0.97 0.96 0.98 1.08 1.24 1.33 1.36 1.28 1.28 1.31 1.28 1.31 1.34 1.25 1.15 1.15
0.72 0.87 0.97 1.04 1.04 0.99 0.96 0.94 0.87 0.85 0.82 0.84 0.93 0.95 0.92 0.95 0.95 0.90 0.92 0.95 0.96 0.92 0.89 0.86 0.88 0.96 1.05 1.10 1.06 1.04 1.09 1.14 1.16 1.24 1.33 1.30 1.15 1.05
0.96 1.01 1.04 1.09 1.11 1.05 0.95 0.86 0.75 0.69 0.71 0.78 0.80 0.82 0.86 0.89 0.94 0.93 0.92 0.91 0.87 0.84 0.82 0.80 0.85 0.94 1.04 0.99 0.86 0.80 0.91 1.01 1.07 1.13 1.18 1.14 1.01 0.95
1.00 1.03 1.12 1.11 1.05 0.94 0.81 0.71 0.61 0.58 0.62 0.65 0.64 0.63 0.70 0.77 0.82 0.86 0.88 0.87 0.83 0.81 0.80 0.79 0.84 0.93 1.03 1.02 0.90 0.79 0.82 0.92 0.97 1.03 1.03 1.06 1.02 1.06
0.70 0.75 0.80 0.82 0.77 0.68 0.62 0.58 0.54 0.52 0.53 0.56 0.58 0.59 0.64 0.66 0.68 0.73 0.81 0.89 0.90 0.86 0.84 0.79 0.80 0.91 0.94 1.00 0.95 0.78 0.72 0.83 0.92 0.93 0.94 1.04 1.08 1.06
0.48 0.51 0.52 0.49 0.50 0.51 0.52 0.52 0.53 0.53 0.54 0.57 0.60 0.62 0.66 0.70 0.68 0.69 0.74 0.80 0.84 0.85 0.84 0.82 0.84 0.91 0.94 0.98 0.91 0.78 0.70 0.70 0.82 0.98 1.00 0.99 0.96 0.92
0.44 0.46 0.47 0.45 0.45 0.48 0.52 0.55 0.57 0.57 0.55 0.58 0.62 0.64 0.66 0.70 0.71 0.74 0.76 0.80 0.83 0.83 0.84 0.84 0.88 0.92 0.92 0.89 0.86 0.79 0.75 0.72 0.72 0.81 0.90 1.02 0.93 0.77

GEFSNE_prec_meanprecacc_258.txt.gz
Total_Precipitation_Accumulation
1.69 1.86 2.01 2.11 2.08 1.90 1.92 2.03 1.93 1.64 1.45 1.30 1.21 1.15 1.16 1.22 1.51 1.42 1.24 1.19 1.06 1.00 0.94 0.91 0.91 0.93 1.09 1.30 1.47 1.60 1.69 1.72 1.76 1.84 1.92 1.94 1.88 1.88
1.69 1.82 1.84 1.89 1.94 1.82 1.80 1.94 1.93 1.73 1.50 1.29 1.16 1.12 1.19 1.15 1.33 1.24 1.33 1.39 1.09 0.97 0.90 0.90 0.83 0.77 0.72 0.77 0.89 1.02 1.11 1.16 1.27 1.36 1.44 1.45 1.44 1.48
1.20 1.33 1.53 1.72 1.80 1.78 1.82 1.89 1.94 1.82 1.57 1.42 1.19 1.17 1.31 1.27 1.26 1.21 1.30 1.35 1.13 1.02 0.87 0.82 0.80 0.75 0.72 0.67 0.68 0.74 0.83 0.88 0.95 1.02 1.10 1.17 1.18 1.20
1.01 1.03 1.13 1.37 1.52 1.65 1.72 1.74 1.82 1.80 1.65 1.62 1.53 1.32 1.27 1.26 1.36 1.44 1.38 1.35 1.30 1.28 1.14 0.93 0.85 0.80 0.76 0.71 0.65 0.62 0.63 0.67 0.73 0.77 0.81 0.92 1.04 1.09
0.93 0.93 1.01 1.12 1.28 1.36 1.45 1.56 1.64 1.75 1.74 1.56 1.62 1.58 1.37 1.32 1.35 1.43 1.49 1.59 1.46 1.41 1.46 1.29 1.07 0.95 0.87 0.80 0.72 0.67 0.65 0.66 0.68 0.73 0.76 0.80 0.84 0.89
0.88 0.95 0.96 0.99 1.15 1.36 1.46 1.53 1.56 1.67 1.78 1.71 1.65 1.64 1.49 1.42 1.40 1.43 1.56 1.66 1.66 1.45 1.36 1.31 1.25 1.14 1.00 0.90 0.82 0.77 0.75 0.73 0.74 0.75 0.76 0.84 0.86 0.84
0.76 0.77 0.84 0.93 1.00 1.18 1.31 1.54 1.56 1.67 1.74 1.80 1.73 1.59 1.46 1.41 1.39 1.38 1.47 1.66 1.70 1.66 1.56 1.38 1.26 1.10 0.99 0.97 0.95 0.92 0.87 0.82 0.83 0.88 0.91 0.92 0.93 0.96
0.74 0.76 0.75 0.78 0.81 0.88 0.92 1.17 1.36 1.48 1.59 1.61 1.67 1.56 1.43 1.38 1.47 1.51 1.49 1.51 1.60 1.60 1.47 1.52 1.48 1.30 1.14 1.01 1.09 1.15 1.12 1.07 0.97 0.93 0.96 1.01 1.03 1.05
0.68 0.76 0.81 0.79 0.86 0.95 0.92 0.97 1.07 1.14 1.27 1.39 1.44 1.40 1.39 1.36 1.45 1.51 1.49 1.41 1.33 1.42 1.40 1.45 1.50 1.38 1.24 1.14 1.16 1.13 1.11 1.09 1.03 0.96 0.92 0.92 0.98 1.04
0.72 0.71 0.81 0.87 0.94 1.11 1.09 1.15 1.09 1.00 1.01 1.07 1.21 1.26 1.23 1.33 1.42 1.59 1.68 1.54 1.41 1.43 1.42 1.34 1.29 1.25 1.17 1.17 1.19 1.05 1.00 1.00 0.98 0.94 0.88 0.85 0.85 0.91
0.71 0.72 0.82 0.91 1.09 1.21 1.22 1.23 1.13 1.06 1.12 1.21 1.27 1.33 1.34 1.40 1.47 1.54 1.61 1.62 1.52 1.46 1.37 1.25 1.16 1.16 1.16 1.12 1.10 1.11 1.05 1.01 0.97 0.95 0.92 0.90 0.92 1.02
0.76 0.74 0.94 0.95 1.04 1.10 1.15 1.27 1.29 1.17 1.13 1.14 1.17 1.20 1.19 1.27 1.48 1.50 1.62 1.72 1.59 1.50 1.37 1.26 1.22 1.32 1.38 1.20 1.06 1.03 1.01 1.06 1.07 1.03 1.02 1.01 1.05 1.02
0.74 0.74 0.71 0.85 0.87 0.97 1.09 1.15 1.38 1.28 1.21 1.22 1.18 1.07 1.05 1.10 1.22 1.40 1.55 1.64 1.60 1.39 1.26 1.26 1.27 1.30 1.30 1.19 1.10 1.07 1.05 1.01 1.02 1.01 1.03 1.09 1.14 1.08
0.59 0.66 0.65 0.74 0.78 0.85 0.87 1.06 1.25 1.21 1.14 1.23 1.24 1.16 1.07 1.06 1.08 1.16 1.32 1.40 1.37 1.34 1.28 1.25 1.24 1.20 1.18 1.08 1.04 1.07 1.10 1.05 1.02 1.02 1.01 1.15 1.19 1.26
0.42 0.58 0.65 0.73 0.70 0.69 0.81 1.01 1.07 1.09 1.24 1.20 1.22 1.18 1.09 1.06 1.00 1.05 1.16 1.22 1.18 1.15 1.16 1.18 1.25 1.24 1.22 1.12 0.98 0.94 1.04 1.10 1.07 1.06 1.07 1.09 1.05 1.10
0.42 0.57 0.70 0.76 0.73 0.70 0.77 0.90 0.96 1.09 1.25 1.15 1.11 1.07 1.02 1.03 1.01 1.00 1.03 1.10 1.15 1.11 1.08 1.08 1.23 1.42 1.43 1.31 1.24 1.14 1.08 1.10 1.09 1.14 1.18 1.18 1.18 1.17
0.55 0.71 0.83 0.84 0.85 0.81 0.83 0.93 0.91 0.89 0.97 0.95 0.97 1.00 1.01 1.01 0.96 0.90 0.93 0.97 1.02 0.98 0.98 0.97 0.99 1.09 1.25 1.34 1.37 1.29 1.29 1.31 1.29 1.32 1.35 1.25 1.15 1.16
0.73 0.89 1.00 1.07 1.07 1.02 0.98 0.96 0.88 0.86 0.83 0.85 0.94 0.96 0.94 0.97 0.97 0.92 0.94 0.97 0.97 0.93 0.91 0.87 0.90 0.98 1.07 1.11 1.07 1.05 1.10 1.15 1.17 1.26 1.34 1.31 1.16 1.06
0.97 1.01 1.05 1.10 1.13 1.08 0.97 0.88 0.77 0.70 0.72 0.79 0.81 0.82 0.86 0.90 0.95 0.95 0.94 0.92 0.88 0.85 0.83 0.81 0.86 0.96 1.06 1.00 0.87 0.81 0.92 1.02 1.08 1.14 1.19 1.15 1.02 0.96
1.01 1.04 1.12 1.11 1.06 0.94 0.82 0.72 0.62 0.59 0.63 0.66 0.65 0.64 0.70 0.77 0.83 0.87 0.89 0.88 0.84 0.82 0.81 0.80 0.85 0.95 1.05 1.04 0.91 0.79 0.83 0.93 0.99 1.05 1.05 1.07 1.03 1.06
0.71 0.76 0.80 0.82 0.77 0.68 0.62 0.59 0.55 0.53 0.54 0.56 0.58 0.59 0.65 0.67 0.69 0.74 0.82 0.90 0.91 0.88 0.86 0.81 0.81 0.92 0.96 1.02 0.96 0.79 0.73 0.84 0.93 0.95 0.97 1.07 1.10 1.07
0.49 0.52 0.52 0.50 0.50 0.51 0.52 0.53 0.54 0.54 0.55 0.57 0.61 0.63 0.67 0.71 0.69 0.70 0.75 0.81 0.85 0.86 0.85 0.83 0.85 0.92 0.95 1.00 0.93 0.80 0.72 0.71 0.83 1.00 1.01 1.00 0.98 0.94
0.45 0.47 0.47 0.46 0.46 0.48 0.53 0.55 0.58 0.57 0.56 0.59 0.64 0.65 0.67 0.71 0.72 0.75 0.77 0.81 0.84 0.85 0.85 0.85 0.89 0.94 0.94 0.91 0.88 0.82 0.78 0.74 0.75 0.83 0.92 1.04 0.95 0.79

GEFSNE_prec_meanprecacc_264.txt.gz
Total_Precipitation_Accumulation
1.71 1.88 2.03 2.13 2.10 1.93 1.96 2.07 1.97 1.68 1.49 1.33 1.24 1.17 1.17 1.23 1.52 1.43 1.25 1.22 1.09 1.02 0.97 0.94 0.94 0.97 1.13 1.38 1.57 1.67 1.74 1.76 1.80 1.88 1.96 1.97 1.91 1.91
1.71 1.83 1.86 1.90 1.95 1.84 1.83 1.96 1.96 1.77 1.53 1.32 1.19 1.14 1.22 1.17 1.34 1.25 1.34 1.43 1.13 1.00 0.93 0.92 0.87 0.81 0.76 0.84 0.97 1.09 1.16 1.21 1.31 1.41 1.47 1.48 1.48 1.51
1.22 1.34 1.54 1.73 1.82 1.81 1.85 1.91 1.96 1.84 1.59 1.45 1.21 1.20 1.34 1.29 1.27 1.22 1.32 1.37 1.16 1.05 0.89 0.84 0.82 0.76 0.74 0.70 0.71 0.78 0.86 0.91 0.98 1.06 1.12 1.19 1.20 1.23
1.04 1.06 1.16 1.39 1.56 1.68 1.76 1.77 1.84 1.83 1.67 1.64 1.56 1.34 1.29 1.27 1.38 1.45 1.39 1.37 1.31 1.30 1.17 0.96 0.86 0.81 0.77 0.72 0.67 0.65 0.66 0.70 0.76 0.80 0.82 0.92 1.05 1.10
0.95 0.96 1.04 1.15 1.31 1.39 1.48 1.58 1.66 1.78 1.77 1.59 1.65 1.60 1.38 1.34 1.37 1.45 1.51 1.61 1.47 1.42 1.48 1.31 1.09 0.97 0.88 0.80 0.73 0.69 0.68 0.69 0.70 0.75 0.77 0.81 0.84 0.89
0.90 0.97 0.98 1.01 1.18 1.39 1.48 1.54 1.58 1.69 1.81 1.73 1.66 1.64 1.49 1.43 1.41 1.44 1.58 1.69 1.69 1.48 1.39 1.34 1.27 1.15 1.01 0.91 0.83 0.79 0.78 0.75 0.76 0.76 0.77 0.84 0.86 0.85
0.78 0.79 0.86 0.95 1.02 1.21 1.33 1.55 1.57 1.69 1.76 1.82 1.75 1.60 1.46 1.42 1.40 1.39 1.49 1.69 1.74 1.70 1.59 1.40 1.28 1.11 1.01 0.98 0.96 0.93 0.89 0.85 0.86 0.91 0.93 0.93 0.94 0.96
0.76 0.78 0.77 0.80 0.84 0.91 0.94 1.17 1.37 1.49 1.60 1.62 1.68 1.57 1.44 1.39 1.48 1.51 1.50 1.53 1.64 1.66 1.51 1.56 1.50 1.31 1.15 1.03 1.10 1.16 1.13 1.08 0.99 0.96 0.99 1.03 1.04 1.06
0.71 0.80 0.83 0.80 0.87 0.96 0.94 0.98 1.08 1.14 1.27 1.39 1.44 1.41 1.40 1.37 1.46 1.52 1.51 1.43 1.36 1.46 1.43 1.48 1.52 1.40 1.25 1.16 1.18 1.14 1.12 1.10 1.05 0.98 0.95 0.95 0.99 1.05
0.74 0.74 0.84 0.89 0.96 1.12 1.10 1.16 1.10 1.00 1.01 1.07 1.21 1.27 1.23 1.34 1.43 1.61 1.71 1.56 1.42 1.45 1.43 1.36 1.31 1.26 1.18 1.18 1.21 1.07 1.01 1.01 0.99 0.96 0.91 0.88 0.88 0.92
0.73 0.74 0.85 0.94 1.11 1.22 1.23 1.24 1.14 1.06 1.12 1.21 1.27 1.33 1.35 1.41 1.49 1.57 1.65 1.64 1.54 1.47 1.38 1.27 1.17 1.17 1.17 1.14 1.11 1.13 1.06 1.01 0.98 0.96 0.94 0.92 0.95 1.04
0.78 0.76 0.96 0.97 1.06 1.12 1.18 1.29 1.30 1.17 1.13 1.15 1.17 1.20 1.20 1.28 1.50 1.54 1.66 1.75 1.61 1.51 1.38 1.27 1.23 1.34 1.39 1.22 1.08 1.05 1.02 1.07 1.08 1.04 1.03 1.03 1.08 1.06
0.75 0.75 0.71 0.85 0.88 0.98 1.11 1.17 1.40 1.29 1.22 1.23 1.18 1.07 1.06 1.10 1.23 1.43 1.59 1.66 1.61 1.40 1.27 1.27 1.27 1.31 1.31 1.20 1.11 1.08 1.06 1.03 1.03 1.02 1.04 1.10 1.16 1.12
0.60 0.67 0.66 0.75 0.79 0.87 0.89 1.07 1.27 1.23 1.16 1.25 1.25 1.16 1.08 1.07 1.09 1.17 1.35 1.43 1.39 1.35 1.30 1.27 1.26 1.22 1.19 1.09 1.05 1.08 1.11 1.07 1.04 1.04 1.03 1.17 1.21 1.29
0.44 0.59 0.67 0.74 0.72 0.70 0.83 1.03 1.09 1.11 1.25 1.22 1.23 1.18 1.10 1.07 1.01 1.07 1.17 1.23 1.20 1.17 1.18 1.21 1.28 1.28 1.25 1.14 1.00 0.95 1.05 1.11 1.08 1.07 1.09 1.11 1.07 1.12
0.44 0.59 0.72 0.78 0.75 0.72 0.79 0.92 0.97 1.10 1.26 1.16 1.12 1.08 1.02 1.04 1.02 1.01 1.04 1.10 1.16 1.12 1.09 1.10 1.25 1.45 1.48 1.35 1.28 1.17 1.10 1.11 1.09 1.15 1.19 1.19 1.19 1.19
0.57 0.73 0.85 0.86 0.87 0.83 0.85 0.94 0.93 0.90 0.98 0.95 0.98 1.01 1.02 1.02 0.97 0.91 0.94 0.98 1.02 0.99 0.98 0.98 1.00 1.11 1.27 1.36 1.40 1.32 1.32 1.34 1.31 1.34 1.36 1.27 1.16 1.17
0.74 0.90 1.02 1.09 1.09 1.03 0.99 0.97 0.90 0.87 0.84 0.86 0.95 0.97 0.94 0.97 0.98 0.93 0.95 0.98 0.99 0.94 0.92 0.88 0.91 0.99 1.08 1.12 1.08 1.06 1.11 1.17 1.19 1.28 1.37 1.33 1.17 1.07
0.98 1.02 1.07 1.12 1.15 1.09 0.99 0.90 0.78 0.71 0.73 0.80 0.82 0.84 0.88 0.91 0.96 0.96 0.95 0.94 0.89 0.86 0.84 0.82 0.88 0.98 1.08 1.02 0.88 0.82 0.93 1.03 1.10 1.16 1.21 1.17 1.04 0.98
1.03 1.05 1.13 1.13 1.08 0.96 0.84 0.75 0.64 0.62 0.66 0.68 0.68 0.66 0.73 0.80 0.85 0.89 0.90 0.89 0.85 0.83 0.82 0.81 0.86 0.96 1.07 1.05 0.92 0.80 0.84 0.94 1.01 1.07 1.07 1.09 1.05 1.08
0.72 0.77 0.81 0.84 0.80 0.71 0.64 0.61 0.56 0.55 0.56 0.58 0.61 0.62 0.67 0.69 0.70 0.75 0.84 0.92 0.93 0.89 0.87 0.82 0.83 0.94 0.97 1.03 0.98 0.80 0.74 0.85 0.95 0.97 1.00 1.10 1.13 1.10
0.50 0.53 0.53 0.51 0.51 0.53 0.54 0.55 0.56 0.55 0.56 0.59 0.62 0.64 0.69 0.73 0.71 0.71 0.76 0.83 0.87 0.88 0.86 0.84 0.86 0.93 0.97 1.02 0.95 0.81 0.73 0.73 0.85 1.02 1.03 1.03 1.02 0.99
0.46 0.48 0.48 0.46 0.46 0.49 0.54 0.57 0.59 0.59 0.58 0.61 0.65 0.66 0.69 0.73 0.74 0.77 0.79 0.83 0.86 0.87 0.87 0.87 0.91 0.96 0.95 0.93 0.89 0.83 0.78 0.75 0.75 0.84 0.93 1.05 0.97 0.81

GEFSNE_prec_meanprecacc_270.txt.gz
Total_Precipitation_Accumulation
1.75 1.92 2.07 2.18 2.17 2.00 2.02 2.11 2.00 1.72 1.51 1.35 1.26 1.19 1.19 1.24 1.53 1.43 1.26 1.23 1.09 1.03 0.99 0.99 1.01 1.06 1.20 1.43 1.63 1.73 1.81 1.87 1.95 2.01 2.05 2.03 1.95 1.95
1.76 1.89 1.92 1.95 2.02 1.92 1.91 2.02 2.01 1.82 1.59 1.36 1.21 1.17 1.23 1.18 1.35 1.26 1.36 1.44 1.14 1.00 0.94 0.97 0.94 0.89 0.84 0.90 1.03 1.15 1.22 1.26 1.40 1.54 1.56 1.53 1.52 1.54
1.27 1.42 1.62 1.80 1.89 1.89 1.93 1.99 2.02 1.89 1.64 1.49 1.24 1.22 1.35 1.30 1.28 1.23 1.33 1.38 1.17 1.06 0.91 0.87 0.87 0.82 0.79 0.75 0.74 0.81 0.90 0.96 1.03 1.12 1.21 1.26 1.24 1.26
1.12 1.15 1.25 1.50 1.66 1.77 1.83 1.85 1.92 1.89 1.71 1.68 1.59 1.38 1.32 1.29 1.40 1.47 1.41 1.38 1.33 1.33 1.19 0.97 0.89 0.84 0.80 0.75 0.70 0.66 0.68 0.74 0.81 0.84 0.88 1.00 1.12 1.14
0.99 1.01 1.11 1.23 1.38 1.46 1.54 1.64 1.72 1.83 1.80 1.62 1.68 1.63 1.42 1.36 1.39 1.47 1.53 1.63 1.50 1.46 1.51 1.34 1.12 1.00 0.91 0.83 0.75 0.71 0.70 0.71 0.74 0.79 0.81 0.85 0.88 0.94
0.91 0.99 1.02 1.05 1.21 1.43 1.52 1.58 1.62 1.73 1.83 1.75 1.68 1.67 1.52 1.46 1.44 1.47 1.60 1.71 1.72 1.51 1.42 1.36 1.30 1.19 1.06 0.96 0.87 0.82 0.80 0.77 0.77 0.80 0.82 0.89 0.89 0.87
0.79 0.80 0.88 0.97 1.05 1.25 1.37 1.58 1.60 1.72 1.78 1.83 1.76 1.61 1.48 1.43 1.42 1.41 1.51 1.72 1.78 1.73 1.60 1.41 1.29 1.13 1.03 1.01 1.00 0.97 0.91 0.86 0.87 0.92 0.98 1.00 0.99 0.99
0.77 0.78 0.78 0.82 0.87 0.95 0.98 1.21 1.40 1.52 1.62 1.63 1.69 1.57 1.44 1.40 1.50 1.54 1.52 1.55 1.68 1.68 1.52 1.57 1.51 1.32 1.17 1.04 1.12 1.18 1.15 1.09 1.00 0.97 1.01 1.08 1.10 1.10
0.71 0.80 0.84 0.81 0.89 0.98 0.97 1.03 1.12 1.17 1.29 1.41 1.46 1.42 1.40 1.37 1.47 1.54 1.53 1.45 1.38 1.48 1.44 1.50 1.53 1.41 1.26 1.16 1.19 1.15 1.14 1.12 1.06 1.00 0.96 0.98 1.03 1.09
0.75 0.74 0.84 0.90 0.97 1.13 1.12 1.19 1.12 1.02 1.02 1.08 1.23 1.28 1.24 1.34 1.44 1.63 1.73 1.58 1.45 1.48 1.45 1.37 1.32 1.28 1.19 1.19 1.22 1.08 1.02 1.02 1.01 0.98 0.92 0.90 0.91 0.96
0.74 0.75 0.86 0.95 1.12 1.24 1.25 1.26 1.15 1.07 1.13 1.22 1.29 1.35 1.35 1.42 1.50 1.59 1.67 1.66 1.56 1.50 1.41 1.28 1.19 1.18 1.18 1.14 1.12 1.14 1.07 1.03 0.99 0.97 0.96 0.94 0.97 1.08
0.80 0.78 0.98 0.99 1.08 1.13 1.19 1.31 1.31 1.19 1.15 1.16 1.18 1.21 1.20 1.28 1.52 1.57 1.70 1.77 1.62 1.52 1.40 1.29 1.25 1.36 1.41 1.23 1.08 1.05 1.03 1.08 1.09 1.06 1.05 1.05 1.10 1.08
0.77 0.77 0.73 0.88 0.90 1.00 1.12 1.18 1.41 1.31 1.25 1.25 1.19 1.09 1.07 1.12 1.25 1.47 1.63 1.68 1.63 1.41 1.28 1.29 1.30 1.35 1.33 1.22 1.13 1.09 1.07 1.03 1.04 1.04 1.06 1.12 1.19 1.14
0.62 0.69 0.67 0.76 0.81 0.88 0.90 1.08 1.28 1.25 1.18 1.27 1.27 1.18 1.08 1.07 1.10 1.20 1.37 1.44 1.40 1.37 1.31 1.29 1.29 1.26 1.23 1.12 1.07 1.09 1.12 1.08 1.05 1.05 1.05 1.19 1.24 1.31
0.45 0.61 0.69 0.76 0.73 0.71 0.84 1.04 1.11 1.13 1.27 1.24 1.24 1.20 1.11 1.08 1.03 1.10 1.19 1.25 1.21 1.18 1.19 1.21 1.30 1.31 1.29 1.19 1.04 0.99 1.07 1.13 1.10 1.10 1.12 1.14 1.11 1.16
0.46 0.62 0.76 0.81 0.76 0.73 0.80 0.93 0.99 1.12 1.28 1.18 1.13 1.09 1.04 1.07 1.05 1.03 1.05 1.12 1.17 1.13 1.10 1.10 1.26 1.46 1.50 1.38 1.31 1.22 1.16 1.17 1.14 1.19 1.23 1.22 1.21 1.21
0.58 0.75 0.87 0.88 0.88 0.84 0.86 0.96 0.94 0.92 1.00 0.97 1.00 1.03 1.03 1.03 0.99 0.93 0.96 0.99 1.03 1.00 1.00 1.01 1.02 1.12 1.28 1.38 1.42 1.35 1.36 1.39 1.38 1.41 1.42 1.31 1.19 1.18
0.75 0.92 1.04 1.10 1.10 1.04 1.01 0.99 0.91 0.89 0.86 0.88 0.98 1.00 0.97 1.00 1.00 0.95 0.97 1.00 1.00 0.96 0.95 0.93 0.94 1.01 1.09 1.13 1.09 1.08 1.13 1.19 1.22 1.32 1.43 1.39 1.22 1.10
0.99 1.03 1.08 1.13 1.16 1.10 1.00 0.91 0.79 0.72 0.75 0.82 0.84 0.86 0.90 0.94 0.99 0.99 0.98 0.96 0.91 0.88 0.87 0.86 0.91 1.00 1.09 1.03 0.88 0.83 0.94 1.04 1.12 1.19 1.25 1.22 1.09 1.01
1.04 1.06 1.14 1.13 1.09 0.96 0.84 0.76 0.66 0.63 0.67 0.69 0.70 0.69 0.76 0.83 0.88 0.92 0.94 0.94 0.89 0.86 0.85 0.84 0.89 0.99 1.10 1.08 0.94 0.81 0.85 0.96 1.02 1.09 1.10 1.13 1.09 1.12
0.74 0.78 0.82 0.85 0.80 0.72 0.65 0.62 0.58 0.56 0.57 0.60 0.62 0.64 0.69 0.72 0.73 0.77 0.86 0.95 0.95 0.92 0.90 0.84 0.85 0.97 1.00 1.05 1.00 0.81 0.75 0.87 0.97 0.99 1.02 1.12 1.16 1.13
0.53 0.55 0.55 0.52 0.52 0.54 0.55 0.56 0.57 0.57 0.58 0.60 0.64 0.67 0.72 0.76 0.74 0.74 0.79 0.86 0.89 0.90 0.89 0.86 0.88 0.96 1.00 1.05 0.98 0.84 0.75 0.74 0.87 1.04 1.05 1.05 1.05 1.02
0.48 0.51 0.50 0.48 0.48 0.50 0.55 0.58 0.60 0.60 0.59 0.62 0.66 0.68 0.70 0.75 0.76 0.78 0.81 0.85 0.88 0.89 0.89 0.89 0.93 0.98 0.98 0.96 0.92 0.85 0.80 0.76 0.77 0.85 0.94 1.06 0.99 0.83

GEFSNE_prec_meanprecacc_276.txt.gz
Total_Precipitation_Accumulation
1.77 1.94 2.11 2.21 2.19 2.01 2.04 2.14 2.03 1.74 1.54 1.36 1.27 1.20 1.19 1.25 1.53 1.44 1.27 1.23 1.10 1.04 1.01 1.00 1.03 1.07 1.22 1.46 1.68 1.80 1.90 1.96 2.02 2.10 2.15 2.14 2.11 2.14
1.77 1.90 1.93 1.97 2.04 1.95 1.93 2.04 2.04 1.85 1.62 1.40 1.23 1.18 1.24 1.18 1.36 1.26 1.36 1.45 1.15 1.01 0.96 0.99 0.96 0.90 0.86 0.93 1.07 1.20 1.28 1.33 1.46 1.62 1.65 1.63 1.62 1.64
1.29 1.44 1.64 1.83 1.93 1.94 1.98 2.03 2.06 1.93 1.67 1.52 1.27 1.24 1.36 1.30 1.28 1.23 1.33 1.39 1.18 1.07 0.93 0.88 0.89 0.84 0.82 0.79 0.80 0.86 0.97 1.03 1.09 1.19 1.30 1.35 1.33 1.33
1.13 1.17 1.28 1.54 1.70 1.82 1.90 1.93 1.99 1.95 1.77 1.72 1.63 1.40 1.33 1.30 1.41 1.48 1.42 1.40 1.35 1.35 1.21 0.99 0.91 0.89 0.84 0.80 0.76 0.73 0.76 0.82 0.87 0.89 0.92 1.07 1.21 1.22
1.00 1.02 1.12 1.26 1.41 1.50 1.60 1.73 1.81 1.92 1.89 1.69 1.74 1.68 1.45 1.39 1.41 1.49 1.55 1.65 1.53 1.49 1.54 1.36 1.15 1.05 0.96 0.88 0.81 0.78 0.77 0.78 0.80 0.83 0.84 0.87 0.94 1.04
0.92 1.00 1.03 1.06 1.24 1.46 1.56 1.64 1.70 1.81 1.91 1.82 1.75 1.73 1.57 1.49 1.47 1.50 1.63 1.75 1.76 1.55 1.45 1.39 1.33 1.22 1.10 1.00 0.90 0.86 0.85 0.81 0.81 0.82 0.84 0.90 0.90 0.90
0.80 0.81 0.89 0.98 1.08 1.29 1.40 1.63 1.68 1.81 1.87 1.90 1.82 1.66 1.53 1.48 1.45 1.44 1.54 1.76 1.83 1.78 1.64 1.44 1.32 1.15 1.05 1.02 1.02 1.00 0.95 0.90 0.90 0.94 0.99 1.01 1.00 1.00
0.78 0.79 0.79 0.83 0.90 0.97 1.02 1.26 1.47 1.61 1.71 1.71 1.75 1.63 1.49 1.43 1.53 1.56 1.55 1.60 1.74 1.74 1.56 1.60 1.54 1.34 1.18 1.05 1.14 1.19 1.16 1.11 1.02 0.99 1.03 1.09 1.11 1.11
0.73 0.81 0.85 0.82 0.90 0.99 1.00 1.07 1.18 1.23 1.37 1.49 1.53 1.49 1.47 1.42 1.51 1.57 1.56 1.48 1.42 1.52 1.47 1.54 1.56 1.42 1.27 1.18 1.20 1.16 1.15 1.13 1.07 1.01 0.97 0.99 1.05 1.12
0.77 0.75 0.85 0.91 0.98 1.15 1.14 1.22 1.15 1.05 1.06 1.13 1.29 1.35 1.30 1.40 1.50 1.69 1.78 1.63 1.49 1.52 1.47 1.39 1.34 1.29 1.20 1.19 1.23 1.09 1.03 1.03 1.02 0.99 0.93 0.91 0.93 0.99
0.76 0.77 0.87 0.96 1.13 1.25 1.27 1.28 1.17 1.10 1.18 1.26 1.33 1.41 1.42 1.47 1.56 1.66 1.72 1.72 1.61 1.56 1.44 1.30 1.20 1.19 1.19 1.15 1.13 1.15 1.08 1.04 1.00 0.98 0.97 0.95 0.98 1.10
0.82 0.81 1.01 1.01 1.11 1.16 1.21 1.32 1.33 1.21 1.18 1.19 1.22 1.25 1.25 1.33 1.58 1.63 1.75 1.82 1.67 1.58 1.44 1.32 1.27 1.37 1.42 1.24 1.09 1.06 1.04 1.09 1.10 1.07 1.06 1.06 1.11 1.10
0.78 0.79 0.75 0.90 0.93 1.02 1.14 1.20 1.42 1.33 1.27 1.28 1.22 1.13 1.12 1.15 1.29 1.50 1.67 1.73 1.67 1.45 1.31 1.30 1.32 1.36 1.34 1.23 1.14 1.10 1.08 1.04 1.05 1.05 1.07 1.13 1.20 1.15
0.63 0.70 0.69 0.78 0.82 0.89 0.91 1.09 1.30 1.27 1.20 1.30 1.29 1.21 1.12 1.11 1.13 1.23 1.41 1.47 1.43 1.39 1.33 1.29 1.30 1.27 1.24 1.14 1.08 1.10 1.13 1.09 1.06 1.06 1.06 1.20 1.25 1.32
0.46 0.63 0.70 0.78 0.75 0.73 0.85 1.05 1.12 1.15 1.29 1.26 1.27 1.22 1.13 1.11 1.07 1.15 1.26 1.29 1.25 1.20 1.21 1.22 1.31 1.32 1.30 1.20 1.06 1.00 1.08 1.13 1.11 1.10 1.13 1.15 1.12 1.17
0.47 0.63 0.77 0.82 0.78 0.74 0.81 0.94 1.00 1.13 1.29 1.19 1.14 1.10 1.06 1.11 1.10 1.12 1.14 1.17 1.22 1.16 1.13 1.12 1.27 1.48 1.52 1.40 1.33 1.23 1.17 1.18 1.14 1.20 1.24 1.24 1.23 1.23
0.59 0.76 0.89 0.89 0.89 0.85 0.87 0.96 0.95 0.94 1.01 0.98 1.01 1.04 1.06 1.06 1.04 1.04 1.07 1.05 1.09 1.04 1.04 1.04 1.05 1.15 1.32 1.41 1.43 1.36 1.37 1.41 1.39 1.42 1.44 1.33 1.21 1.20
0.76 0.93 1.05 1.12 1.12 1.06 1.01 0.99 0.92 0.90 0.87 0.89 0.99 1.01 0.99 1.02 1.03 1.01 1.05 1.06 1.05 0.99 0.97 0.95 0.96 1.03 1.12 1.15 1.11 1.10 1.14 1.20 1.23 1.33 1.44 1.40 1.23 1.12
1.00 1.04 1.09 1.15 1.17 1.12 1.01 0.91 0.80 0.73 0.75 0.83 0.85 0.87 0.92 0.96 1.01 1.01 1.00 1.01 0.96 0.90 0.89 0.88 0.94 1.03 1.12 1.05 0.89 0.85 0.96 1.06 1.13 1.20 1.26 1.22 1.09 1.02
1.06 1.07 1.16 1.16 1.11 0.98 0.86 0.77 0.67 0.64 0.68 0.70 0.71 0.69 0.77 0.85 0.91 0.94 0.96 0.96 0.92 0.89 0.88 0.86 0.92 1.02 1.13 1.10 0.96 0.83 0.87 0.97 1.04 1.11 1.11 1.14 1.11 1.14
0.76 0.81 0.85 0.89 0.84 0.75 0.68 0.64 0.60 0.58 0.58 0.61 0.63 0.65 0.71 0.75 0.75 0.79 0.88 0.97 0.98 0.94 0.93 0.87 0.87 0.99 1.02 1.08 1.02 0.83 0.77 0.89 0.99 1.01 1.04 1.14 1.18 1.15
0.56 0.58 0.58 0.57 0.58 0.59 0.59 0.59 0.60 0.59 0.60 0.62 0.66 0.68 0.73 0.78 0.76 0.76 0.81 0.88 0.91 0.91 0.90 0.88 0.90 0.98 1.03 1.09 1.00 0.86 0.76 0.76 0.89 1.06 1.07 1.07 1.06 1.03
0.52 0.55 0.54 0.52 0.53 0.56 0.59 0.61 0.63 0.62 0.60 0.63 0.68 0.70 0.72 0.76 0.78 0.81 0.83 0.87 0.90 0.90 0.90 0.90 0.94 0.99 1.00 0.98 0.95 0.88 0.83 0.79 0.79 0.87 0.96 1.08 1.00 0.84

GEFSNE_prec_meanprecacc_282.txt.gz
Total_Precipitation_Accumulation
1.79 1.95 2.11 2.22 2.21 2.03 2.06 2.16 2.07 1.77 1.56 1.38 1.28 1.21 1.20 1.25 1.54 1.44 1.27 1.24 1.11 1.06 1.03 1.02 1.04 1.09 1.25 1.48 1.69 1.82 1.93 2.00 2.08 2.16 2.20 2.19 2.15 2.19
1.79 1.92 1.94 1.98 2.06 1.96 1.95 2.06 2.06 1.88 1.65 1.42 1.25 1.19 1.25 1.19 1.36 1.27 1.36 1.45 1.16 1.03 0.98 1.00 0.97 0.92 0.88 0.95 1.09 1.22 1.29 1.34 1.49 1.65 1.69 1.67 1.65 1.68
1.31 1.46 1.66 1.84 1.95 1.95 1.99 2.04 2.07 1.95 1.69 1.54 1.29 1.25 1.38 1.32 1.29 1.24 1.34 1.40 1.19 1.09 0.95 0.90 0.91 0.86 0.84 0.81 0.82 0.89 0.98 1.04 1.11 1.21 1.33 1.38 1.36 1.36
1.14 1.18 1.29 1.56 1.72 1.83 1.91 1.94 2.00 1.96 1.79 1.74 1.65 1.42 1.35 1.32 1.42 1.49 1.43 1.41 1.36 1.36 1.23 1.02 0.94 0.91 0.85 0.82 0.78 0.76 0.78 0.84 0.90 0.92 0.96 1.10 1.24 1.24
1.01 1.03 1.13 1.27 1.43 1.52 1.62 1.74 1.82 1.93 1.91 1.71 1.76 1.70 1.47 1.41 1.43 1.51 1.57 1.66 1.54 1.50 1.56 1.38 1.17 1.07 0.98 0.90 0.83 0.80 0.80 0.81 0.82 0.86 0.86 0.89 0.96 1.05
0.93 1.01 1.03 1.07 1.25 1.47 1.58 1.67 1.72 1.83 1.93 1.84 1.77 1.74 1.59 1.52 1.50 1.54 1.67 1.77 1.78 1.57 1.47 1.41 1.35 1.25 1.13 1.03 0.92 0.88 0.88 0.85 0.84 0.85 0.86 0.91 0.92 0.92
0.81 0.82 0.89 0.99 1.09 1.29 1.41 1.64 1.70 1.83 1.90 1.93 1.83 1.68 1.54 1.50 1.48 1.47 1.57 1.79 1.86 1.80 1.66 1.46 1.34 1.18 1.09 1.06 1.04 1.01 0.96 0.93 0.93 0.97 1.01 1.02 1.01 1.01
0.80 0.81 0.80 0.84 0.91 0.98 1.02 1.26 1.48 1.63 1.74 1.74 1.77 1.64 1.50 1.45 1.55 1.58 1.57 1.63 1.77 1.77 1.59 1.63 1.56 1.37 1.22 1.09 1.16 1.21 1.18 1.13 1.03 1.00 1.04 1.10 1.12 1.11
0.74 0.83 0.87 0.84 0.91 1.00 1.01 1.08 1.18 1.25 1.39 1.52 1.55 1.50 1.48 1.43 1.52 1.58 1.58 1.50 1.44 1.54 1.50 1.58 1.61 1.47 1.31 1.21 1.24 1.19 1.17 1.14 1.09 1.02 0.98 1.00 1.06 1.12
0.78 0.76 0.87 0.93 0.99 1.16 1.16 1.23 1.17 1.08 1.08 1.16 1.32 1.37 1.32 1.41 1.52 1.71 1.80 1.66 1.52 1.56 1.51 1.44 1.39 1.35 1.25 1.24 1.27 1.12 1.05 1.05 1.03 1.00 0.94 0.92 0.93 1.00
0.77 0.78 0.89 0.97 1.16 1.27 1.29 1.29 1.19 1.12 1.19 1.29 1.37 1.45 1.45 1.50 1.60 1.69 1.75 1.75 1.66 1.61 1.48 1.33 1.24 1.25 1.25 1.21 1.18 1.19 1.11 1.06 1.02 1.00 0.98 0.96 1.00 1.11
0.82 0.81 1.03 1.02 1.13 1.18 1.23 1.34 1.35 1.23 1.20 1.20 1.25 1.31 1.31 1.38 1.63 1.68 1.81 1.86 1.71 1.62 1.48 1.35 1.31 1.42 1.48 1.30 1.14 1.11 1.07 1.13 1.13 1.09 1.07 1.08 1.13 1.11
0.78 0.80 0.77 0.92 0.96 1.05 1.15 1.21 1.44 1.35 1.29 1.30 1.25 1.17 1.18 1.21 1.34 1.55 1.73 1.78 1.72 1.48 1.34 1.33 1.35 1.39 1.38 1.27 1.18 1.14 1.11 1.07 1.08 1.07 1.09 1.15 1.22 1.17
0.64 0.71 0.71 0.80 0.84 0.92 0.93 1.11 1.31 1.30 1.23 1.32 1.32 1.24 1.16 1.16 1.18 1.28 1.47 1.52 1.48 1.43 1.35 1.32 1.32 1.29 1.26 1.16 1.11 1.13 1.15 1.11 1.08 1.08 1.07 1.22 1.27 1.34
0.47 0.63 0.71 0.79 0.76 0.74 0.88 1.09 1.14 1.17 1.31 1.28 1.29 1.25 1.16 1.15 1.11 1.19 1.30 1.33 1.29 1.25 1.25 1.26 1.34 1.35 1.32 1.22 1.08 1.02 1.10 1.15 1.12 1.12 1.14 1.17 1.14 1.19
0.47 0.63 0.77 0.83 0.79 0.76 0.84 0.97 1.01 1.14 1.30 1.20 1.16 1.12 1.09 1.14 1.13 1.15 1.17 1.21 1.26 1.20 1.17 1.16 1.30 1.52 1.55 1.42 1.35 1.24 1.18 1.19 1.16 1.21 1.26 1.26 1.25 1.25
0.59 0.76 0.89 0.90 0.91 0.87 0.89 0.98 0.97 0.95 1.03 1.00 1.03 1.07 1.08 1.09 1.06 1.06 1.09 1.07 1.11 1.06 1.07 1.07 1.07 1.18 1.35 1.44 1.46 1.38 1.39 1.42 1.40 1.43 1.45 1.34 1.22 1.21
0.77 0.93 1.06 1.13 1.13 1.08 1.04 1.01 0.93 0.91 0.89 0.91 1.01 1.05 1.02 1.04 1.05 1.03 1.07 1.09 1.08 1.02 1.00 0.97 0.99 1.07 1.17 1.19 1.13 1.11 1.16 1.21 1.24 1.34 1.44 1.41 1.24 1.12
1.00 1.05 1.09 1.16 1.19 1.14 1.05 0.94 0.81 0.74 0.77 0.84 0.87 0.90 0.94 0.98 1.03 1.03 1.03 1.04 1.01 0.94 0.91 0.90 0.96 1.06 1.16 1.08 0.92 0.87 0.98 1.07 1.14 1.21 1.26 1.23 1.10 1.02
1.06 1.08 1.17 1.17 1.12 1.00 0.90 0.81 0.69 0.66 0.70 0.73 0.73 0.72 0.80 0.88 0.93 0.96 0.99 1.00 0.97 0.93 0.91 0.89 0.94 1.04 1.15 1.12 0.98 0.85 0.90 0.99 1.05 1.12 1.12 1.15 1.12 1.14
0.77 0.81 0.86 0.90 0.86 0.77 0.72 0.70 0.64 0.61 0.62 0.64 0.67 0.68 0.75 0.79 0.79 0.83 0.91 1.01 1.02 0.97 0.95 0.89 0.90 1.03 1.06 1.10 1.04 0.85 0.79 0.91 1.01 1.03 1.05 1.16 1.20 1.16
0.57 0.59 0.59 0.58 0.60 0.61 0.63 0.65 0.65 0.62 0.62 0.65 0.69 0.71 0.77 0.82 0.79 0.79 0.85 0.92 0.95 0.94 0.92 0.90 0.93 1.02 1.06 1.11 1.02 0.87 0.78 0.78 0.91 1.09 1.10 1.10 1.09 1.06
0.53 0.56 0.55 0.54 0.55 0.58 0.63 0.67 0.70 0.67 0.64 0.67 0.72 0.73 0.76 0.80 0.81 0.84 0.86 0.90 0.93 0.93 0.93 0.94 0.97 1.03 1.03 1.01 0.97 0.90 0.85 0.81 0.81 0.89 0.98 1.11 1.03 0.86

GEFSNE_prec_meanprecacc_288.txt.gz
Total_Precipitation_Accumulation
1.81 1.97 2.13 2.23 2.23 2.05 2.08 2.18 2.09 1.79 1.57 1.39 1.30 1.23 1.22 1.27 1.56 1.47 1.30 1.25 1.12 1.07 1.03 1.02 1.04 1.10 1.25 1.49 1.71 1.84 1.95 2.03 2.12 2.21 2.24 2.22 2.18 2.22
1.81 1.94 1.96 2.00 2.07 1.98 1.96 2.07 2.08 1.90 1.66 1.44 1.27 1.21 1.27 1.21 1.38 1.30 1.39 1.47 1.16 1.03 0.98 1.01 0.98 0.92 0.88 0.96 1.10 1.24 1.31 1.36 1.51 1.67 1.71 1.69 1.67 1.70
1.32 1.47 1.68 1.87 1.97 1.97 2.01 2.06 2.09 1.96 1.71 1.56 1.31 1.27 1.39 1.34 1.32 1.27 1.37 1.42 1.20 1.09 0.95 0.91 0.91 0.86 0.84 0.82 0.84 0.91 1.00 1.05 1.12 1.22 1.34 1.40 1.37 1.38
1.16 1.21 1.33 1.58 1.73 1.84 1.93 1.96 2.02 1.98 1.80 1.76 1.66 1.43 1.36 1.34 1.44 1.51 1.45 1.43 1.37 1.37 1.23 1.02 0.94 0.91 0.86 0.83 0.80 0.77 0.79 0.85 0.90 0.93 0.97 1.12 1.25 1.26
1.03 1.06 1.16 1.29 1.45 1.54 1.64 1.75 1.84 1.95 1.93 1.73 1.78 1.71 1.48 1.42 1.45 1.53 1.59 1.68 1.56 1.51 1.56 1.39 1.17 1.08 1.00 0.92 0.85 0.82 0.81 0.82 0.83 0.87 0.87 0.90 0.97 1.06
0.95 1.03 1.06 1.09 1.27 1.49 1.59 1.69 1.74 1.84 1.95 1.86 1.79 1.76 1.61 1.53 1.52 1.55 1.69 1.79 1.80 1.58 1.48 1.41 1.36 1.26 1.14 1.04 0.95 0.91 0.90 0.87 0.86 0.87 0.87 0.92 0.93 0.92
0.84 0.85 0.92 1.01 1.12 1.32 1.43 1.66 1.71 1.85 1.92 1.95 1.86 1.69 1.56 1.52 1.50 1.49 1.60 1.81 1.88 1.82 1.67 1.46 1.35 1.19 1.11 1.08 1.06 1.04 1.00 0.96 0.96 1.00 1.04 1.03 1.02 1.01
0.83 0.84 0.83 0.86 0.93 1.00 1.05 1.28 1.49 1.65 1.76 1.77 1.80 1.66 1.51 1.46 1.57 1.60 1.60 1.66 1.80 1.79 1.60 1.64 1.58 1.39 1.23 1.10 1.18 1.25 1.23 1.17 1.07 1.04 1.09 1.13 1.13 1.12
0.77 0.85 0.89 0.86 0.92 1.01 1.02 1.10 1.20 1.26 1.41 1.54 1.57 1.52 1.49 1.44 1.53 1.60 1.60 1.52 1.46 1.57 1.52 1.59 1.62 1.48 1.32 1.22 1.26 1.21 1.20 1.18 1.13 1.07 1.04 1.04 1.08 1.14
0.80 0.79 0.89 0.94 1.00 1.17 1.17 1.24 1.18 1.09 1.10 1.18 1.32 1.38 1.33 1.43 1.54 1.73 1.83 1.68 1.54 1.58 1.55 1.47 1.41 1.36 1.26 1.25 1.28 1.15 1.10 1.09 1.07 1.04 0.98 0.96 0.96 1.02
0.78 0.79 0.90 0.98 1.16 1.28 1.31 1.31 1.21 1.13 1.20 1.30 1.38 1.45 1.46 1.52 1.61 1.71 1.78 1.78 1.69 1.64 1.51 1.37 1.27 1.27 1.28 1.22 1.20 1.22 1.16 1.10 1.06 1.03 1.01 0.99 1.02 1.13
0.83 0.82 1.03 1.03 1.13 1.19 1.24 1.36 1.36 1.24 1.21 1.21 1.25 1.32 1.32 1.39 1.64 1.69 1.82 1.89 1.75 1.66 1.51 1.37 1.33 1.44 1.52 1.34 1.17 1.14 1.12 1.19 1.18 1.13 1.10 1.10 1.16 1.13
0.79 0.80 0.77 0.92 0.96 1.06 1.16 1.22 1.45 1.36 1.30 1.30 1.25 1.18 1.20 1.24 1.37 1.57 1.75 1.80 1.75 1.52 1.36 1.35 1.37 1.41 1.41 1.30 1.22 1.17 1.14 1.12 1.15 1.14 1.14 1.19 1.25 1.20
0.64 0.72 0.72 0.81 0.85 0.93 0.94 1.12 1.32 1.31 1.24 1.33 1.33 1.25 1.18 1.20 1.24 1.31 1.50 1.54 1.50 1.46 1.38 1.34 1.34 1.32 1.28 1.19 1.15 1.18 1.19 1.14 1.11 1.12 1.13 1.28 1.32 1.39
0.47 0.64 0.72 0.80 0.77 0.75 0.89 1.10 1.15 1.17 1.32 1.29 1.30 1.25 1.18 1.19 1.18 1.25 1.34 1.36 1.30 1.27 1.27 1.28 1.36 1.38 1.34 1.23 1.09 1.05 1.13 1.18 1.15 1.15 1.17 1.21 1.18 1.23
0.48 0.64 0.78 0.84 0.80 0.77 0.85 0.99 1.03 1.15 1.32 1.21 1.17 1.13 1.11 1.19 1.23 1.26 1.23 1.25 1.29 1.24 1.22 1.20 1.34 1.55 1.59 1.45 1.37 1.27 1.21 1.22 1.18 1.23 1.28 1.29 1.30 1.30
0.60 0.76 0.89 0.90 0.91 0.87 0.90 1.00 0.99 0.97 1.05 1.01 1.05 1.09 1.11 1.12 1.12 1.17 1.17 1.12 1.16 1.11 1.14 1.15 1.14 1.24 1.40 1.48 1.49 1.42 1.42 1.44 1.42 1.45 1.47 1.36 1.25 1.25
0.77 0.93 1.06 1.13 1.13 1.09 1.05 1.02 0.95 0.93 0.90 0.93 1.04 1.07 1.05 1.07 1.08 1.10 1.16 1.15 1.13 1.06 1.05 1.04 1.06 1.15 1.24 1.25 1.17 1.14 1.19 1.24 1.27 1.36 1.46 1.42 1.25 1.13
1.02 1.05 1.10 1.16 1.19 1.15 1.06 0.96 0.83 0.76 0.79 0.88 0.91 0.93 0.97 1.00 1.05 1.06 1.09 1.10 1.05 0.97 0.96 0.95 1.02 1.12 1.21 1.13 0.97 0.90 1.00 1.10 1.17 1.24 1.29 1.25 1.11 1.03
1.09 1.10 1.18 1.18 1.13 1.01 0.91 0.83 0.72 0.69 0.73 0.77 0.77 0.75 0.83 0.91 0.96 0.99 1.02 1.05 1.02 0.98 0.95 0.95 1.02 1.10 1.19 1.16 1.01 0.88 0.93 1.02 1.08 1.14 1.14 1.17 1.13 1.16
0.80 0.84 0.88 0.92 0.87 0.79 0.73 0.72 0.67 0.65 0.66 0.69 0.70 0.71 0.77 0.83 0.83 0.86 0.94 1.05 1.07 1.02 1.00 0.94 0.96 1.09 1.10 1.14 1.07 0.88 0.82 0.94 1.04 1.05 1.07 1.18 1.21 1.18
0.59 0.61 0.61 0.60 0.62 0.64 0.66 0.69 0.70 0.68 0.69 0.70 0.72 0.74 0.79 0.85 0.83 0.83 0.87 0.95 0.99 0.99 0.97 0.94 0.98 1.08 1.12 1.16 1.05 0.90 0.81 0.80 0.94 1.11 1.12 1.11 1.11 1.07
0.55 0.58 0.57 0.56 0.57 0.60 0.65 0.70 0.75 0.72 0.69 0.72 0.75 0.76 0.78 0.83 0.85 0.88 0.90 0.94 0.97 0.98 0.98 0.98 1.02 1.08 1.08 1.05 1.00 0.93 0.87 0.83 0.83 0.91 1.00 1.12 1.04 0.87